Laatste waarneming: 19:44
Temperatuur:2,5°C
Dauwpunt:-0,4°C
Rel. vocht:81,3%
Natte-bol:1,4°C
Wind (gem. 10 min.):2,3 m/s
Wind (max. 10 min.): m/s
Windrichting:211°
Neerslagsom:0,0 mm
Neerslagintensiteit:0,0 mm/u
Luchtdruk:1026,0 hPa
Straling:0,0 W/m2
 
Maximumtemp.:4,6°C (00:00)
Minimumtemp.:2,4°C (08:37)
Hoogste windstoot:12,1 m/s (11:05)


Bekijk de verwachting.

Bekijk het Tabeloverzicht.
Bekijk het Maandoverzicht.
Dagtabel
Tijd Temp. Dauwp. Natte-bol Rel. Hum. Windsnelh. Windricht. Windstoot Neerslag Straling Luchtdruk
 
19:44 2,5 -0,4 1,4 81,3 2,3 211 - 0,0 0 1.026,0
19:43 2,5 -0,5 1,3 80,8 2,2 185 - 0,0 0 1.026,0
19:42 2,4 -0,7 1,2 80,1 2,2 151 - 0,0 0 1.026,0
19:41 2,5 -0,6 1,3 80,1 2,9 127 - 0,0 0 1.025,9
19:40 2,5 -0,6 1,3 80,1 4,9 114 - 0,0 0 1.025,9
19:39 2,5 -0,6 1,3 80,1 4,8 112 - 0,0 0 1.025,9
19:38 2,5 -0,6 1,3 80,1 4,9 114 - 0,0 0 1.025,9
19:37 2,5 -0,6 1,3 80,1 3,9 118 - 0,0 0 1.026,0
19:36 2,5 -0,6 1,3 80,1 2,0 120 - 0,0 0 1.026,0
19:35 2,5 -0,6 1,3 80,1 2,0 116 - 0,0 0 1.025,9
19:34 2,4 -0,7 1,2 80,1 3,1 111 - 0,0 0 1.026,0
19:33 2,5 -0,6 1,3 80,1 5,8 104 - 0,0 0 1.026,0
19:32 2,5 -0,6 1,3 80,1 5,8 98 - 0,0 0 1.026,0
19:31 2,5 -0,6 1,3 80,1 5,9 96 - 0,0 0 1.026,0
19:30 2,5 -0,6 1,3 80,1 6,1 98 - 0,0 0 1.026,0
19:29 2,5 -0,6 1,3 80,1 6,6 103 - 0,0 0 1.026,0
19:28 2,5 -0,6 1,3 80,1 5,6 108 - 0,0 0 1.026,0
19:27 2,5 -0,6 1,3 80,1 4,1 113 - 0,0 0 1.026,0
19:26 2,5 -0,6 1,3 80,1 4,2 118 - 0,0 0 1.026,0
19:25 2,5 -0,6 1,3 80,1 5,1 122 - 0,0 0 1.026,0
19:24 2,5 -0,6 1,3 80,1 5,9 123 9,8 0,0 0 1.025,9
19:23 2,5 -0,6 1,3 80,1 5,2 121 9,4 0,0 0 1.025,9
19:22 2,5 -0,6 1,3 80,1 4,7 118 - 0,0 0 1.025,9
19:21 2,5 -0,6 1,3 80,1 4,6 116 9,4 0,0 0 1.025,9
19:20 2,4 -0,7 1,2 80,1 5,4 113 - 0,0 0 1.025,9
19:19 2,5 -0,6 1,3 80,1 6,0 109 - 0,0 0 1.025,9
19:18 2,5 -0,4 1,3 80,9 5,4 104 - 0,0 0 1.025,9
19:17 2,5 -0,4 1,4 81,3 3,7 100 - 0,0 0 1.025,9
19:16 2,5 -0,6 1,3 80,2 2,3 97 - 0,0 0 1.025,9
19:15 2,5 -0,6 1,3 80,1 2,1 95 - 0,0 0 1.025,9
19:14 2,5 -0,6 1,3 80,1 3,1 90 - 0,0 0 1.025,8
19:13 2,5 -0,6 1,3 80,1 4,2 86 - 0,0 0 1.025,8
19:12 2,5 -0,6 1,3 80,1 4,4 83 - 0,0 0 1.025,9
19:11 2,5 -0,6 1,3 80,1 3,9 81 - 0,0 0 1.025,9
19:10 2,5 -0,6 1,3 80,1 3,8 80 - 0,0 0 1.025,9
19:09 2,5 -0,6 1,3 80,1 3,8 82 - 0,0 0 1.025,9
19:08 2,5 -0,6 1,3 80,1 4,4 86 - 0,0 0 1.025,9
19:07 2,5 -0,6 1,3 80,1 4,8 91 - 0,0 0 1.025,9
19:06 2,5 -0,6 1,3 80,1 5,4 95 - 0,0 0 1.025,9
19:05 2,5 -0,6 1,3 80,1 5,3 98 - 0,0 0 1.025,9
19:04 2,5 -0,6 1,3 80,1 5,2 98 - 0,0 0 1.025,9
19:03 2,5 -0,6 1,3 80,1 5,7 98 - 0,0 0 1.025,9
19:02 2,5 -0,6 1,3 80,1 5,8 100 9,8 0,0 0 1.025,9
19:01 2,5 -0,6 1,3 80,1 5,0 102 9,4 0,0 0 1.026,0
19:00 2,5 -0,6 1,3 80,1 4,0 103 - 0,0 0 1.025,9
 
18:59 2,5 -0,6 1,3 80,1 4,5 103 - 0,0 0 1.025,9
18:58 2,5 -0,6 1,3 80,1 5,3 105 9,4 0,0 0 1.025,8
18:57 2,5 -0,6 1,3 80,1 5,3 107 9,4 0,0 0 1.025,8
18:56 2,5 -0,6 1,3 80,1 5,4 106 - 0,0 0 1.025,9
18:55 2,5 -0,6 1,3 80,1 5,8 105 11,6 0,0 0 1.025,9
18:54 2,5 -0,4 1,3 81,0 6,7 105 - 0,0 0 1.025,8
18:53 2,6 -0,3 1,4 81,3 6,6 105 12,1 0,0 0 1.025,9
18:52 2,6 -0,3 1,4 81,3 6,6 104 12,1 0,0 0 1.025,9
18:51 2,6 -0,3 1,4 81,3 5,5 103 11,2 0,0 0 1.025,9
18:50 2,6 -0,3 1,4 81,3 4,2 103 - 0,0 0 1.025,9
18:49 2,6 -0,3 1,4 81,3 4,2 104 - 0,0 0 1.025,9
18:48 2,6 -0,3 1,4 81,3 5,1 106 - 0,0 0 1.025,9
18:47 2,6 -0,3 1,4 81,3 4,5 110 - 0,0 0 1.025,9
18:46 2,6 -0,3 1,4 81,3 3,3 114 - 0,0 0 1.025,9
18:45 2,6 -0,3 1,4 81,3 2,9 119 - 0,0 0 1.025,9
18:44 2,6 -0,3 1,4 81,3 2,9 122 - 0,0 0 1.025,9
18:43 2,6 -0,3 1,4 81,3 2,6 121 - 0,0 0 1.025,9
18:42 2,6 -0,3 1,4 81,3 2,7 116 - 0,0 0 1.025,9
18:41 2,6 -0,3 1,4 81,3 3,2 108 - 0,0 0 1.025,9
18:40 2,6 -0,3 1,4 81,3 4,3 101 - 0,0 0 1.025,9
18:39 2,6 -0,3 1,4 81,3 5,1 97 - 0,0 0 1.025,9
18:38 2,6 -0,3 1,4 81,3 4,8 97 - 0,0 0 1.025,8
18:37 2,6 -0,3 1,4 81,3 4,2 99 - 0,0 0 1.025,8
18:36 2,6 -0,3 1,4 81,3 4,6 104 - 0,0 0 1.025,9
18:35 2,6 -0,3 1,4 81,3 4,5 109 - 0,0 0 1.025,9
18:34 2,6 -0,3 1,4 81,3 3,5 112 - 0,0 0 1.025,9
18:33 2,6 -0,3 1,4 81,3 2,7 111 - 0,0 0 1.025,8
18:32 2,6 -0,3 1,4 81,3 3,1 108 - 0,0 0 1.025,8
18:31 2,6 -0,3 1,4 81,3 4,0 103 - 0,0 0 1.025,9
18:30 2,6 -0,3 1,4 81,3 4,1 98 - 0,0 0 1.025,9
18:29 2,5 -0,4 1,4 81,3 4,7 95 - 0,0 0 1.025,9
18:28 2,5 -0,4 1,4 81,3 5,0 97 - 0,0 0 1.025,9
18:27 2,5 -0,4 1,4 81,3 4,8 99 - 0,0 0 1.025,9
18:26 2,5 -0,4 1,4 81,3 4,3 102 - 0,0 0 1.025,9
18:25 2,5 -0,4 1,4 81,3 3,7 103 - 0,0 0 1.025,9
18:24 2,5 -0,4 1,4 81,3 3,4 104 - 0,0 0 1.025,9
18:23 2,5 -0,4 1,4 81,3 3,7 103 - 0,0 0 1.025,9
18:22 2,5 -0,4 1,4 81,3 4,5 99 - 0,0 0 1.025,9
18:21 2,5 -0,4 1,4 81,3 4,3 92 - 0,0 0 1.025,9
18:20 2,5 -0,4 1,4 81,3 3,5 84 - 0,0 0 1.025,9
18:19 2,5 -0,4 1,4 81,3 2,9 77 - 0,0 0 1.025,9
18:18 2,5 -0,4 1,4 81,4 3,1 72 - 0,0 0 1.025,9
18:17 2,5 -0,2 1,4 82,4 3,5 72 - 0,0 0 1.025,9
18:16 2,5 -0,2 1,4 82,4 3,2 76 - 0,0 0 1.025,9
18:15 2,5 -0,2 1,4 82,4 3,3 83 - 0,0 0 1.025,9
18:14 2,5 -0,2 1,4 82,4 3,5 92 - 0,0 0 1.025,9
18:13 2,5 -0,2 1,4 82,4 2,7 105 - 0,0 0 1.025,9
18:12 2,5 -0,2 1,4 82,4 2,2 112 - 0,0 0 1.025,9
18:11 2,5 -0,2 1,4 82,4 2,1 113 - 0,0 0 1.025,9
18:10 2,5 -0,2 1,4 82,4 2,9 110 - 0,0 0 1.025,9
18:09 2,5 -0,2 1,4 82,4 3,2 108 - 0,0 0 1.025,9
18:08 2,5 -0,2 1,4 82,4 3,9 105 - 0,0 0 1.025,9
18:07 2,5 -0,2 1,4 82,4 4,2 101 - 0,0 0 1.025,9
18:06 2,5 -0,2 1,4 82,4 4,7 98 - 0,0 0 1.025,9
18:05 2,5 -0,2 1,4 82,4 4,4 100 - 0,0 0 1.025,9
18:04 2,5 -0,2 1,4 82,4 3,4 104 - 0,0 0 1.025,9
18:03 2,5 -0,2 1,4 82,4 3,0 107 - 0,0 0 1.025,9
18:02 2,5 -0,2 1,4 82,4 4,4 113 - 0,0 0 1.025,8
18:01 2,5 -0,2 1,4 82,4 5,5 120 10,3 0,0 0 1.025,9
18:00 2,5 -0,2 1,4 82,4 4,8 124 9,8 0,0 0 1.025,8
 
17:59 2,5 -0,2 1,4 82,4 4,3 126 9,8 0,0 0 1.025,8
17:58 2,5 -0,2 1,4 82,4 4,9 127 - 0,0 0 1.025,8
17:57 2,5 -0,1 1,5 83,1 5,1 127 - 0,0 0 1.025,8
17:56 2,5 -0,1 1,4 82,8 4,9 122 9,8 0,0 0 1.025,8
17:55 2,5 0,0 1,5 83,5 5,0 117 - 0,0 0 1.025,8
17:54 2,5 0,0 1,5 83,6 5,7 112 - 0,0 0 1.025,8
17:53 2,5 0,0 1,5 83,6 5,7 107 - 0,0 0 1.025,8
17:52 2,5 0,0 1,5 83,6 5,1 103 11,6 0,0 0 1.025,8
17:51 2,6 0,1 1,6 83,6 4,5 101 - 0,0 0 1.025,8
17:50 2,6 0,1 1,6 83,6 4,2 101 - 0,0 0 1.025,7
17:49 2,6 0,1 1,6 83,6 4,2 101 - 0,0 0 1.025,8
17:48 2,6 0,1 1,6 83,6 4,5 100 - 0,0 0 1.025,8
17:47 2,6 0,1 1,6 83,6 4,9 99 - 0,0 0 1.025,7
17:46 2,6 0,1 1,6 83,6 5,6 97 - 0,0 0 1.025,8
17:45 2,6 0,1 1,6 83,6 5,8 95 - 0,0 0 1.025,7
17:44 2,6 0,1 1,6 83,6 4,9 93 - 0,0 0 1.025,7
17:43 2,6 0,1 1,6 83,6 3,6 95 - 0,0 0 1.025,7
17:42 2,6 0,1 1,6 83,6 3,6 103 - 0,0 0 1.025,7
17:41 2,6 0,1 1,6 83,6 4,0 116 - 0,0 0 1.025,7
17:40 2,6 0,1 1,6 83,6 4,3 130 - 0,0 0 1.025,7
17:39 2,6 0,1 1,6 83,6 4,7 139 9,8 0,0 0 1.025,7
17:38 2,6 0,1 1,6 83,6 4,7 140 - 0,0 0 1.025,7
17:37 2,6 0,1 1,6 83,6 4,1 137 - 0,0 0 1.025,7
17:36 2,6 0,1 1,6 83,6 3,4 129 - 0,0 0 1.025,6
17:35 2,6 0,1 1,6 83,6 4,5 118 - 0,0 0 1.025,6
17:34 2,6 0,1 1,6 83,6 4,4 106 9,4 0,0 0 1.025,6
17:33 2,6 0,1 1,6 83,6 4,3 99 - 0,0 0 1.025,6
17:32 2,6 0,1 1,6 83,6 3,9 97 - 0,0 0 1.025,6
17:31 2,6 0,1 1,6 83,6 4,4 97 - 0,0 0 1.025,6
17:30 2,6 0,1 1,6 83,6 5,1 97 - 0,0 0 1.025,6
17:29 2,6 0,1 1,6 83,6 5,0 96 - 0,0 0 1.025,6
17:28 2,6 0,1 1,6 83,6 5,0 95 - 0,0 0 1.025,5
17:27 2,6 0,1 1,6 83,6 5,0 95 - 0,0 0 1.025,5
17:26 2,6 0,1 1,6 83,6 4,7 94 - 0,0 0 1.025,5
17:25 2,6 0,1 1,6 83,6 4,4 93 - 0,0 0 1.025,5
17:24 2,6 0,1 1,6 83,6 4,6 91 - 0,0 0 1.025,5
17:23 2,6 0,1 1,6 83,6 5,1 90 - 0,0 0 1.025,5
17:22 2,6 0,1 1,6 83,6 5,9 91 10,3 0,0 0 1.025,5
17:21 2,6 0,1 1,6 83,6 6,6 92 10,3 0,0 0 1.025,5
17:20 2,6 0,1 1,6 83,6 6,0 93 9,8 0,0 0 1.025,5
17:19 2,6 0,1 1,6 83,6 5,3 94 - 0,0 0 1.025,4
17:18 2,6 0,1 1,6 83,6 4,9 96 - 0,0 0 1.025,5
17:17 2,6 0,1 1,6 83,6 5,0 97 - 0,0 0 1.025,5
17:16 2,6 0,1 1,6 83,6 5,1 96 - 0,0 0 1.025,5
17:15 2,6 0,1 1,6 83,6 5,1 93 - 0,0 0 1.025,4
17:14 2,6 0,1 1,6 83,6 4,6 90 - 0,0 0 1.025,4
17:13 2,6 0,1 1,6 83,6 3,8 90 - 0,0 0 1.025,5
17:12 2,6 0,1 1,6 83,6 4,2 91 - 0,0 0 1.025,4
17:11 2,6 0,1 1,6 83,6 5,4 93 10,3 0,0 0 1.025,4
17:09 2,6 0,1 1,6 83,6 6,0 94 9,4 0,0 0 1.025,4
17:08 2,6 0,1 1,6 83,6 5,7 95 - 0,0 0 1.025,5
17:07 2,6 0,1 1,6 83,6 5,8 96 9,4 0,0 0 1.025,4
17:06 2,6 0,1 1,6 83,6 6,4 96 9,8 0,0 0 1.025,5
17:05 2,6 0,1 1,6 83,6 6,5 96 - 0,0 0 1.025,4
17:04 2,6 0,1 1,6 83,6 6,6 94 10,7 0,0 0 1.025,5
17:03 2,6 0,1 1,6 83,6 6,9 94 - 0,0 0 1.025,5
17:02 2,6 0,1 1,6 83,6 7,0 94 10,7 0,0 0 1.025,4
17:01 2,6 0,1 1,6 83,6 5,9 95 10,7 0,0 0 1.025,5
17:00 2,6 0,1 1,6 83,6 4,7 96 - 0,0 0 1.025,5
 
16:59 2,6 0,1 1,6 83,6 4,2 97 - 0,0 0 1.025,5
16:58 2,6 0,1 1,6 83,6 4,1 99 - 0,0 0 1.025,5
16:57 2,6 0,1 1,6 83,6 3,9 101 - 0,0 0 1.025,5
16:56 2,6 0,1 1,6 83,6 4,1 103 - 0,0 0 1.025,5
16:55 2,6 0,1 1,6 83,6 4,8 103 - 0,0 0 1.025,5
16:54 2,6 0,1 1,6 83,6 5,0 101 - 0,0 0 1.025,5
16:53 2,6 0,1 1,6 83,6 5,1 99 - 0,0 0 1.025,5
16:52 2,6 0,1 1,6 83,6 4,7 97 - 0,0 0 1.025,5
16:51 2,6 0,1 1,6 83,6 4,3 95 - 0,0 0 1.025,5
16:50 2,6 0,1 1,6 83,6 3,6 92 - 0,0 0 1.025,5
16:49 2,6 0,1 1,6 83,6 3,6 92 - 0,0 0 1.025,5
16:48 2,6 0,1 1,6 83,6 4,1 95 - 0,0 0 1.025,5
16:47 2,6 0,2 1,6 84,2 4,7 99 - 0,0 0 1.025,5
16:46 2,6 0,3 1,7 84,8 4,6 101 9,8 0,0 0 1.025,5
16:45 2,7 0,4 1,8 84,8 4,2 104 9,4 0,0 0 1.025,5
16:44 2,7 0,4 1,8 84,8 3,6 108 - 0,0 0 1.025,5
16:43 2,7 0,4 1,8 84,8 3,3 110 - 0,0 0 1.025,5
16:42 2,6 0,3 1,7 84,8 3,4 108 - 0,0 0 1.025,4
16:41 2,6 0,3 1,7 84,8 3,4 105 - 0,0 0 1.025,5
16:40 2,6 0,3 1,7 84,8 3,7 105 - 0,0 0 1.025,4
16:39 2,6 0,3 1,7 84,8 4,1 106 - 0,0 0 1.025,4
16:38 2,6 0,3 1,7 84,8 4,5 107 - 0,0 0 1.025,4
16:37 2,6 0,3 1,7 84,8 4,6 106 - 0,0 0 1.025,4
16:36 2,6 0,3 1,7 84,8 4,6 106 - 0,0 0 1.025,4
16:35 2,6 0,3 1,7 84,8 3,7 106 - 0,0 0 1.025,4
16:34 2,6 0,3 1,7 84,8 2,9 103 - 0,0 0 1.025,4
16:33 2,6 0,3 1,7 84,8 2,7 96 - 0,0 0 1.025,3
16:32 2,6 0,3 1,7 84,6 2,9 87 - 0,0 0 1.025,3
16:31 2,6 0,1 1,6 83,6 3,6 82 - 0,0 0 1.025,3
16:30 2,6 0,1 1,6 83,6 4,3 81 - 0,0 0 1.025,3
16:28 2,7 0,2 1,7 83,6 4,3 82 - 0,0 0 1.025,3
16:27 2,6 0,1 1,6 83,6 3,4 84 - 0,0 0 1.025,3
16:26 2,6 0,1 1,6 83,6 3,8 87 - 0,0 0 1.025,3
16:25 2,7 0,2 1,7 83,6 4,2 91 - 0,0 0 1.025,2
16:24 2,7 0,2 1,7 83,6 4,2 94 - 0,0 0 1.025,3
16:23 2,7 0,2 1,7 83,6 4,4 97 - 0,0 0 1.025,3
16:22 2,7 0,2 1,7 83,6 5,1 99 - 0,0 0 1.025,3
16:21 2,7 0,2 1,7 83,6 5,4 100 - 0,0 0 1.025,2
16:20 2,7 0,2 1,7 83,8 5,1 101 - 0,0 0 1.025,2
16:19 2,7 0,4 1,8 84,8 4,4 101 - 0,0 0 1.025,2
16:18 2,7 0,3 1,7 84,3 3,3 99 - 0,0 0 1.025,2
16:17 2,7 0,2 1,7 83,6 3,0 95 - 0,0 0 1.025,3
16:16 2,7 0,2 1,7 83,6 3,3 91 - 0,0 0 1.025,3
16:15 2,7 0,2 1,7 83,6 3,9 89 - 0,0 0 1.025,2
16:14 2,7 0,2 1,7 83,6 3,6 90 - 0,0 0 1.025,2
16:13 2,7 0,2 1,7 83,6 3,2 92 - 0,0 0 1.025,2
16:12 2,7 0,2 1,7 83,6 2,7 94 - 0,0 0 1.025,2
16:11 2,7 0,2 1,7 83,6 2,8 96 - 0,0 0 1.025,2
16:10 2,6 0,1 1,6 83,6 3,8 97 - 0,0 0 1.025,2
16:09 2,7 0,2 1,7 83,6 4,7 96 - 0,0 0 1.025,2
16:08 2,7 0,2 1,7 83,6 4,1 96 - 0,0 0 1.025,2
16:07 2,7 0,2 1,7 83,6 3,1 96 - 0,0 0 1.025,2
16:06 2,7 0,2 1,7 83,6 3,3 98 - 0,0 4 1.025,2
16:05 2,7 0,2 1,7 83,6 3,1 100 - 0,0 0 1.025,2
16:04 2,7 0,2 1,7 83,6 2,7 100 - 0,0 1 1.025,2
16:03 2,7 0,2 1,7 83,6 2,5 97 - 0,0 5 1.025,2
16:02 2,7 0,2 1,7 83,6 3,6 95 - 0,0 5 1.025,2
16:01 2,7 0,2 1,7 83,6 4,2 93 - 0,0 5 1.025,1
16:00 2,7 0,2 1,7 83,6 4,4 90 - 0,0 5 1.025,2
 
15:59 2,7 0,2 1,7 83,6 3,9 87 - 0,0 5 1.025,2
15:58 2,7 0,2 1,7 83,6 3,6 85 - 0,0 5 1.025,2
15:57 2,7 0,2 1,7 83,6 3,6 83 - 0,0 5 1.025,2
15:56 2,7 0,3 1,7 83,9 3,9 80 - 0,0 5 1.025,2
15:55 2,7 0,4 1,8 84,8 3,7 75 - 0,0 5 1.025,2
15:54 2,7 0,3 1,7 84,2 3,0 74 - 0,0 5 1.025,2
15:53 2,7 0,3 1,7 84,4 2,8 76 - 0,0 5 1.025,2
15:52 2,7 0,4 1,8 84,8 3,1 79 - 0,0 5 1.025,2
15:51 2,7 0,4 1,8 84,8 4,0 82 - 0,0 5 1.025,2
15:50 2,7 0,4 1,8 84,8 4,9 86 - 0,0 5 1.025,1
15:49 2,7 0,4 1,8 84,8 4,8 90 - 0,0 5 1.025,1
15:48 2,7 0,4 1,8 84,8 4,1 91 - 0,0 5 1.025,1
15:47 2,7 0,4 1,8 84,8 3,9 91 - 0,0 5 1.025,2
15:46 2,7 0,4 1,8 84,8 3,9 91 - 0,0 5 1.025,1
15:45 2,8 0,5 1,9 84,8 2,9 92 - 0,0 6 1.025,2
15:44 2,8 0,5 1,9 84,8 2,0 92 - 0,0 7 1.025,2
15:43 2,7 0,4 1,8 84,8 1,8 95 - 0,0 6 1.025,2
15:42 2,7 0,4 1,8 84,8 2,0 99 - 0,0 5 1.025,2
15:41 2,7 0,4 1,8 84,8 2,5 102 - 0,0 7 1.025,1
15:40 2,7 0,4 1,8 84,8 3,1 104 - 0,0 8 1.025,1
15:39 2,7 0,4 1,8 84,8 3,4 105 - 0,0 8 1.025,1
15:38 2,7 0,4 1,8 84,8 3,0 107 - 0,0 8 1.025,1
15:37 2,7 0,4 1,8 84,8 2,5 107 - 0,0 9 1.025,1
15:36 2,7 0,4 1,8 84,8 2,0 106 - 0,0 9 1.025,1
15:35 2,7 0,4 1,8 84,8 1,9 104 - 0,0 10 1.025,1
15:34 2,7 0,4 1,8 84,8 2,2 100 - 0,0 10 1.025,1
15:33 2,7 0,4 1,8 84,8 2,2 95 - 0,0 9 1.025,1
15:32 2,7 0,4 1,8 84,8 2,3 90 - 0,0 9 1.025,0
15:31 2,7 0,4 1,8 84,8 2,7 86 - 0,0 9 1.025,0
15:30 2,7 0,4 1,8 84,8 3,2 87 - 0,0 11 1.025,0
15:29 2,7 0,4 1,8 84,8 3,2 90 - 0,0 11 1.025,0
15:28 2,7 0,4 1,8 84,8 3,2 94 - 0,0 12 1.025,1
15:27 2,7 0,4 1,8 84,8 3,0 97 - 0,0 11 1.025,1
15:26 2,7 0,4 1,8 84,8 3,1 102 - 0,0 8 1.025,1
15:25 2,7 0,4 1,8 84,8 3,4 108 - 0,0 7 1.025,1
15:24 2,7 0,4 1,8 84,8 3,2 113 - 0,0 9 1.025,1
15:23 2,7 0,4 1,8 84,8 2,8 113 - 0,0 11 1.025,1
15:22 2,7 0,4 1,8 84,8 3,0 114 - 0,0 11 1.025,1
15:21 2,7 0,4 1,8 84,8 3,5 114 - 0,0 11 1.025,1
15:20 2,7 0,4 1,8 84,8 3,4 114 - 0,0 11 1.025,0
15:19 2,7 0,4 1,8 84,8 3,3 112 - 0,0 12 1.025,1
15:18 2,7 0,4 1,8 84,8 3,2 110 - 0,0 12 1.025,0
15:17 2,7 0,4 1,8 84,8 3,3 110 - 0,0 12 1.025,0
15:16 2,7 0,4 1,8 84,8 2,9 110 - 0,0 11 1.025,1
15:15 2,7 0,4 1,8 84,8 2,3 110 - 0,0 12 1.025,0
15:14 2,7 0,4 1,8 84,8 2,4 109 - 0,0 14 1.025,0
15:13 2,7 0,4 1,8 84,8 2,8 108 - 0,0 12 1.025,0
15:12 2,7 0,4 1,8 84,8 3,0 107 - 0,0 12 1.025,0
15:11 2,7 0,4 1,8 84,8 3,1 107 - 0,0 14 1.025,0
15:10 2,7 0,4 1,8 84,8 3,1 106 - 0,0 14 1.025,0
15:09 2,7 0,4 1,8 84,8 2,6 105 - 0,0 14 1.025,0
15:08 2,6 0,3 1,7 84,8 1,9 103 - 0,0 14 1.025,0
15:07 2,6 0,3 1,7 84,8 2,0 101 - 0,0 14 1.025,1
15:06 2,6 0,3 1,7 84,8 2,9 99 - 0,0 14 1.025,0
15:05 2,6 0,3 1,7 84,8 3,5 96 - 0,0 17 1.025,0
15:04 2,6 0,3 1,7 84,8 3,6 94 - 0,0 19 1.025,0
15:03 2,6 0,3 1,7 84,8 3,5 91 - 0,0 18 1.025,0
15:02 2,6 0,3 1,7 84,8 4,1 88 - 0,0 19 1.024,9
15:01 2,6 0,3 1,7 84,8 4,2 85 - 0,0 19 1.025,0
15:00 2,6 0,3 1,7 84,8 4,0 84 - 0,0 22 1.025,0
 
14:59 2,6 0,3 1,7 84,8 4,0 85 - 0,0 20 1.025,0
14:58 2,6 0,3 1,7 84,8 4,0 86 - 0,0 20 1.024,9
14:57 2,6 0,3 1,7 84,8 4,0 88 - 0,0 19 1.025,0
14:56 2,6 0,3 1,7 84,8 3,9 91 - 0,0 19 1.025,0
14:55 2,6 0,3 1,7 84,8 4,3 94 - 0,0 21 1.025,0
14:54 2,6 0,3 1,7 84,8 4,6 95 - 0,0 21 1.025,0
14:53 2,5 0,2 1,6 84,8 5,1 96 - 0,0 18 1.025,0
14:52 2,6 0,3 1,7 84,8 5,1 96 - 0,0 15 1.025,0
14:51 2,6 0,3 1,7 84,8 4,3 96 - 0,0 14 1.025,0
14:50 2,6 0,3 1,7 84,8 3,1 95 - 0,0 14 1.025,0
14:49 2,5 0,2 1,6 84,8 2,7 94 - 0,0 16 1.025,0
14:48 2,5 0,2 1,6 84,8 3,1 93 - 0,0 20 1.025,0
14:47 2,5 0,2 1,6 84,8 3,0 93 - 0,0 20 1.025,0
14:46 2,5 0,2 1,6 84,8 3,2 94 - 0,0 20 1.025,0
14:45 2,5 0,2 1,6 84,8 4,1 95 - 0,0 21 1.025,0
14:44 2,6 0,3 1,7 84,8 4,6 99 - 0,0 21 1.025,0
14:43 2,6 0,3 1,7 84,8 3,8 101 - 0,0 21 1.025,0
14:42 2,6 0,3 1,7 84,8 3,5 101 - 0,0 23 1.025,0
14:41 2,6 0,3 1,7 84,8 3,3 99 - 0,0 22 1.024,9
14:40 2,6 0,3 1,7 84,8 3,4 97 - 0,0 23 1.025,0
14:39 2,6 0,3 1,7 84,8 3,2 95 - 0,0 21 1.025,0
14:38 2,6 0,3 1,7 84,8 3,1 94 - 0,0 19 1.025,0
14:37 2,6 0,3 1,7 84,8 3,0 94 - 0,0 19 1.025,0
14:36 2,6 0,3 1,7 84,8 4,1 96 - 0,0 18 1.024,9
14:35 2,5 0,2 1,6 84,8 5,0 98 10,3 0,0 19 1.024,9
14:34 2,6 0,3 1,7 84,8 5,2 101 - 0,0 20 1.024,9
14:33 2,6 0,3 1,7 84,8 4,8 102 - 0,0 21 1.025,0
14:32 2,6 0,3 1,7 84,8 4,4 102 - 0,0 19 1.024,9
14:31 2,6 0,2 1,6 83,9 4,5 102 - 0,0 19 1.024,9
14:30 2,6 0,1 1,6 83,6 5,1 103 - 0,0 22 1.024,9
14:29 2,6 0,1 1,6 83,6 4,8 105 - 0,0 23 1.024,9
14:28 2,6 0,1 1,6 83,6 1,9 106 - 0,0 22 1.024,9
14:27 2,6 0,1 1,6 83,6 1,5 105 - 0,0 21 1.024,9
14:26 2,7 0,2 1,7 83,6 3,0 107 - 0,0 21 1.024,9
14:25 2,7 0,2 1,7 83,6 5,0 111 - 0,0 23 1.024,9
14:24 2,7 0,2 1,7 83,6 4,5 112 - 0,0 23 1.024,9
14:23 2,7 0,2 1,7 83,6 4,2 111 - 0,0 25 1.024,9
14:22 2,7 0,2 1,7 83,6 4,1 110 - 0,0 29 1.024,9
14:21 2,7 0,1 1,7 83,1 4,1 108 - 0,0 32 1.024,9
14:20 2,7 0,1 1,7 83,1 4,4 105 - 0,0 33 1.024,9
14:19 2,8 0,2 1,7 82,8 4,5 102 - 0,0 28 1.024,9
14:18 2,8 0,1 1,7 82,4 4,9 98 - 0,0 28 1.024,9
14:17 2,8 0,1 1,7 82,4 5,3 98 - 0,0 28 1.024,9
14:16 2,8 0,1 1,7 82,4 5,6 100 - 0,0 27 1.024,9
14:15 2,8 0,1 1,7 82,4 6,0 102 - 0,0 25 1.024,9
14:14 2,8 0,1 1,7 82,4 6,6 102 9,8 0,0 20 1.024,9
14:13 2,8 0,1 1,7 82,4 7,2 101 10,7 0,0 22 1.024,9
14:12 2,9 0,2 1,8 82,4 6,7 100 - 0,0 23 1.024,9
14:11 2,9 0,2 1,8 82,4 6,1 101 - 0,0 24 1.024,9
14:10 2,9 0,2 1,8 82,4 5,6 101 - 0,0 25 1.024,9
14:09 3,0 0,3 1,9 82,4 3,8 102 - 0,0 25 1.025,0
14:08 3,0 0,3 1,9 82,4 2,8 103 - 0,0 26 1.024,9
14:07 2,9 0,2 1,8 82,4 2,7 106 - 0,0 25 1.024,9
14:06 2,9 0,2 1,8 82,4 3,7 108 - 0,0 27 1.025,0
14:05 2,9 0,2 1,8 82,2 3,5 106 - 0,0 32 1.024,9
14:04 2,9 0,0 1,7 81,3 3,5 103 - 0,0 33 1.024,9
14:03 2,9 0,0 1,7 81,3 3,5 102 - 0,0 33 1.025,0
14:02 2,9 0,0 1,7 81,3 3,8 104 - 0,0 35 1.024,9
14:01 2,9 0,0 1,7 81,3 3,9 109 - 0,0 35 1.024,9
14:00 2,9 0,0 1,7 81,3 3,5 113 - 0,0 33 1.025,0
 
13:59 2,9 0,0 1,7 81,3 3,6 115 - 0,0 34 1.024,9
13:58 2,9 0,0 1,7 81,3 4,0 116 - 0,0 36 1.024,8
13:57 3,0 0,1 1,8 81,3 4,6 115 - 0,0 40 1.024,9
13:56 3,0 0,1 1,8 81,3 4,6 114 - 0,0 44 1.024,9
13:55 3,0 0,1 1,8 81,3 4,4 114 - 0,0 45 1.024,9
13:54 3,0 0,1 1,8 81,3 4,5 114 - 0,0 46 1.024,9
13:53 3,0 0,1 1,8 81,3 4,1 115 - 0,0 45 1.024,9
13:52 3,0 0,1 1,8 81,3 3,1 116 - 0,0 44 1.025,0
13:51 3,0 0,0 1,8 80,7 2,4 115 - 0,0 49 1.024,9
13:50 2,9 -0,2 1,7 80,1 2,4 111 - 0,0 51 1.024,9
13:49 2,9 -0,2 1,7 80,1 3,9 106 - 0,0 52 1.024,9
13:48 2,9 -0,2 1,7 80,1 5,4 103 9,4 0,0 56 1.024,9
13:47 2,9 -0,2 1,7 80,1 6,4 103 11,6 0,0 60 1.024,9
13:46 3,0 -0,1 1,8 80,1 5,9 103 9,8 0,0 62 1.024,9
13:45 3,0 -0,1 1,8 80,1 5,2 103 9,8 0,0 56 1.024,9
13:44 3,0 -0,1 1,8 80,1 4,6 103 - 0,0 55 1.025,0
13:43 3,0 -0,1 1,8 80,1 3,6 103 - 0,0 63 1.024,9
13:42 3,0 -0,1 1,8 80,1 3,0 102 - 0,0 67 1.024,9
13:41 2,9 -0,2 1,7 80,1 2,5 97 - 0,0 64 1.024,9
13:40 2,9 -0,2 1,7 80,1 3,5 93 - 0,0 62 1.024,9
13:39 2,9 -0,2 1,7 80,1 4,6 92 - 0,0 60 1.024,8
13:38 3,0 -0,1 1,8 80,1 5,8 92 9,8 0,0 58 1.024,9
13:37 3,0 -0,1 1,8 80,1 6,0 92 - 0,0 55 1.024,9
13:36 3,0 -0,1 1,8 80,1 5,5 93 - 0,0 54 1.024,9
13:35 3,0 -0,1 1,8 80,1 4,5 96 - 0,0 55 1.025,0
13:34 3,0 -0,1 1,8 80,1 3,7 99 - 0,0 58 1.025,0
13:33 3,0 -0,1 1,8 80,1 3,7 99 - 0,0 60 1.025,0
13:32 3,0 -0,1 1,8 80,1 3,9 98 - 0,0 65 1.025,0
13:31 3,0 -0,1 1,8 80,1 4,3 97 - 0,0 70 1.024,9
13:30 3,0 -0,1 1,8 80,1 4,4 96 - 0,0 74 1.024,9
13:29 2,9 -0,2 1,7 80,1 4,1 95 - 0,0 77 1.024,9
13:28 2,9 -0,2 1,7 80,1 3,6 95 - 0,0 73 1.025,0
13:27 2,9 -0,2 1,7 80,1 4,3 96 - 0,0 64 1.025,0
13:26 2,9 -0,2 1,7 80,1 5,8 97 9,4 0,0 49 1.025,0
13:25 3,0 0,1 1,8 81,2 5,7 98 10,3 0,0 33 1.025,0
13:24 3,0 0,1 1,8 81,0 2,1 100 - 0,0 26 1.025,0
13:23 3,0 0,0 1,8 80,6 0,7 101 - 0,0 26 1.025,0
13:22 3,0 0,1 1,8 81,3 3,2 105 - 0,0 26 1.025,0
13:21 3,1 0,2 1,9 81,3 5,2 110 9,8 0,0 26 1.025,0
13:20 3,1 0,2 1,9 81,3 1,9 115 - 0,0 26 1.025,0
13:19 3,1 0,2 1,9 81,3 0,8 115 - 0,0 28 1.025,0
13:18 3,1 0,2 1,9 81,3 1,9 110 - 0,0 31 1.025,0
13:17 3,1 0,2 1,9 81,3 4,1 103 - 0,0 28 1.025,0
13:15 3,1 0,2 1,9 81,3 4,7 95 - 0,0 33 1.025,0
13:14 3,1 0,2 1,9 81,3 5,4 89 - 0,0 32 1.025,0
13:13 3,1 0,2 1,9 81,3 4,9 82 - 0,0 28 1.025,0
13:12 3,1 0,2 1,9 81,3 3,5 75 - 0,0 29 1.025,0
13:11 3,1 0,2 1,9 81,3 2,9 72 - 0,0 30 1.025,1
13:10 3,1 0,2 1,9 81,3 3,4 74 - 0,0 30 1.025,1
13:09 3,1 0,2 1,9 81,3 4,1 80 - 0,0 37 1.025,1
13:08 3,1 0,2 1,9 81,3 4,2 86 - 0,0 40 1.025,1
13:07 3,1 0,2 1,9 81,3 3,7 93 - 0,0 41 1.025,1
13:06 3,1 0,2 1,9 81,3 3,7 101 - 0,0 43 1.025,1
13:05 3,1 0,2 1,9 81,3 3,8 109 - 0,0 43 1.025,1
13:04 3,1 0,2 1,9 81,3 1,9 109 - 0,0 38 1.025,1
13:03 3,1 0,2 1,9 81,3 1,5 103 - 0,0 40 1.025,0
13:02 3,1 0,2 1,9 81,3 2,8 98 - 0,0 46 1.025,1
13:01 3,1 0,2 1,9 81,3 5,5 94 - 0,0 53 1.025,1
13:00 3,1 0,2 1,9 81,3 4,8 92 - 0,0 65 1.025,2
 
12:59 3,1 0,2 1,9 81,3 3,6 93 - 0,0 78 1.025,1
12:58 3,1 0,2 1,9 81,3 2,7 100 - 0,0 96 1.025,2
12:57 3,1 0,2 1,9 81,3 3,0 109 - 0,0 107 1.025,2
12:56 3,1 0,2 1,9 81,3 3,6 111 - 0,0 107 1.025,2
12:55 3,1 0,2 2,0 81,5 4,5 111 - 0,0 122 1.025,2
12:54 3,1 0,4 2,0 82,4 4,7 110 - 0,0 129 1.025,3
12:53 3,0 0,3 1,9 82,4 5,0 109 - 0,0 104 1.025,2
12:52 3,0 0,3 1,9 82,4 4,4 105 - 0,0 82 1.025,3
12:51 3,0 0,3 1,9 82,4 4,0 101 - 0,0 82 1.025,3
12:50 3,0 0,3 1,9 82,4 3,2 100 - 0,0 82 1.025,3
12:49 3,0 0,3 1,9 82,4 2,3 99 - 0,0 93 1.025,3
12:48 2,9 0,2 1,8 82,4 2,2 95 - 0,0 92 1.025,3
12:47 2,9 0,2 1,8 82,4 2,9 91 - 0,0 84 1.025,3
12:46 2,9 0,2 1,8 82,4 3,5 88 - 0,0 95 1.025,3
12:45 2,9 0,2 1,8 82,4 3,3 87 - 0,0 118 1.025,3
12:44 2,9 0,2 1,8 82,4 3,3 87 - 0,0 128 1.025,3
12:43 2,9 0,2 1,8 82,4 3,6 88 - 0,0 106 1.025,3
12:42 2,9 0,2 1,8 82,4 3,3 90 - 0,0 89 1.025,3
12:41 2,8 0,2 1,8 83,0 3,3 96 - 0,0 83 1.025,4
12:40 2,8 0,3 1,8 83,6 3,5 102 - 0,0 72 1.025,4
12:39 2,8 0,3 1,8 83,6 3,8 104 - 0,0 73 1.025,4
12:38 2,8 0,3 1,8 83,6 4,0 105 - 0,0 86 1.025,4
12:37 2,8 0,3 1,8 83,6 4,9 107 - 0,0 62 1.025,3
12:36 2,8 0,3 1,8 83,6 5,1 109 - 0,0 39 1.025,4
12:35 2,8 0,3 1,8 83,6 3,8 108 - 0,0 39 1.025,4
12:34 2,8 0,3 1,8 83,6 2,5 102 - 0,0 35 1.025,4
12:33 2,8 0,3 1,8 83,6 3,0 96 - 0,0 36 1.025,4
12:32 2,8 0,3 1,8 83,6 3,9 93 - 0,0 45 1.025,4
12:31 2,8 0,3 1,8 83,6 4,7 91 - 0,0 69 1.025,4
12:30 2,8 0,3 1,8 83,6 5,1 91 - 0,0 78 1.025,4
12:29 2,8 0,3 1,8 83,6 5,6 93 - 0,0 83 1.025,4
12:28 2,8 0,3 1,8 83,6 5,7 96 - 0,0 84 1.025,4
12:27 2,8 0,3 1,8 83,6 5,5 100 - 0,0 63 1.025,4
12:26 2,8 0,3 1,8 83,6 5,1 103 - 0,0 66 1.025,4
12:25 2,8 0,3 1,8 83,6 4,8 103 - 0,0 67 1.025,4
12:24 2,8 0,3 1,8 83,6 4,8 101 9,8 0,0 67 1.025,5
12:23 2,8 0,3 1,8 83,6 5,1 98 - 0,0 69 1.025,4
12:22 2,8 0,3 1,8 83,6 5,2 96 - 0,0 58 1.025,4
12:21 2,8 0,3 1,8 83,6 4,7 94 - 0,0 57 1.025,4
12:20 2,8 0,3 1,8 83,6 4,1 93 - 0,0 51 1.025,4
12:19 2,8 0,3 1,8 83,6 3,9 95 - 0,0 45 1.025,4
12:18 2,8 0,3 1,8 83,6 4,0 99 - 0,0 43 1.025,3
12:17 2,8 0,3 1,8 83,6 3,3 103 - 0,0 39 1.025,4
12:16 2,7 0,2 1,7 83,6 2,9 103 - 0,0 39 1.025,4
12:15 2,7 0,2 1,7 83,6 3,2 103 - 0,0 42 1.025,4
12:14 2,7 0,2 1,7 83,6 4,3 103 - 0,0 47 1.025,4
12:13 2,7 0,2 1,7 83,6 4,7 102 - 0,0 54 1.025,4
12:12 2,7 0,2 1,7 83,6 4,7 103 - 0,0 69 1.025,4
12:11 2,7 0,2 1,7 83,6 5,2 104 - 0,0 71 1.025,4
12:10 2,7 0,2 1,7 83,6 5,4 105 9,4 0,0 64 1.025,4
12:09 2,7 0,4 1,8 84,6 4,9 107 - 0,0 64 1.025,4
12:08 2,7 0,4 1,8 84,8 4,0 107 - 0,0 59 1.025,4
12:07 2,7 0,4 1,8 84,8 3,7 103 - 0,0 54 1.025,4
12:06 2,6 0,3 1,7 84,8 3,6 98 - 0,0 52 1.025,4
12:05 2,6 0,3 1,7 84,8 4,5 94 - 0,0 47 1.025,4
12:04 2,6 0,3 1,7 84,8 5,1 93 - 0,0 47 1.025,4
12:03 2,6 0,3 1,7 84,8 4,9 91 - 0,0 45 1.025,4
12:02 2,7 0,4 1,8 84,8 4,3 88 - 0,0 36 1.025,4
12:01 2,7 0,4 1,8 84,8 3,9 85 - 0,0 29 1.025,4
12:00 2,7 0,4 1,8 84,8 3,0 82 - 0,0 26 1.025,4
 
11:59 2,7 0,4 1,8 84,8 2,4 81 - 0,0 25 1.025,4
11:58 2,7 0,4 1,8 84,8 2,7 83 - 0,0 28 1.025,4
11:57 2,6 0,3 1,7 84,8 4,0 85 - 0,0 33 1.025,5
11:56 2,6 0,3 1,7 84,8 4,7 88 - 0,0 31 1.025,5
11:55 2,6 0,3 1,7 84,8 4,2 91 - 0,0 34 1.025,5
11:54 2,6 0,3 1,7 84,8 3,7 93 - 0,0 38 1.025,5
11:53 2,6 0,3 1,7 84,8 4,5 93 - 0,0 39 1.025,5
11:52 2,6 0,3 1,7 84,8 5,1 93 - 0,0 36 1.025,5
11:51 2,6 0,3 1,7 84,8 4,8 94 9,8 0,0 33 1.025,5
11:50 2,6 0,3 1,7 84,8 4,7 95 - 0,0 34 1.025,5
11:49 2,6 0,3 1,7 84,8 5,2 94 - 0,0 37 1.025,4
11:48 2,7 0,4 1,8 84,8 5,8 93 - 0,0 39 1.025,4
11:47 2,7 0,4 1,8 84,8 4,7 93 - 0,0 45 1.025,4
11:46 2,7 0,4 1,8 84,8 3,6 94 - 0,0 48 1.025,4
11:45 2,7 0,4 1,8 84,8 3,8 93 - 0,0 46 1.025,4
11:44 2,7 0,4 1,8 84,8 4,3 91 9,4 0,0 51 1.025,5
11:43 2,7 0,4 1,8 84,8 3,6 91 - 0,0 57 1.025,5
11:42 2,7 0,4 1,8 84,8 2,4 91 - 0,0 58 1.025,4
11:41 2,7 0,4 1,8 84,8 2,6 91 - 0,0 56 1.025,5
11:40 2,7 0,4 1,8 84,8 3,0 89 - 0,0 54 1.025,5
11:39 2,6 0,3 1,7 84,8 3,2 89 - 0,0 54 1.025,5
11:38 2,6 0,3 1,7 84,8 3,0 94 - 0,0 54 1.025,6
11:37 2,6 0,3 1,7 84,8 3,3 101 - 0,0 56 1.025,6
11:36 2,6 0,3 1,7 84,8 3,3 104 - 0,0 54 1.025,6
11:35 2,6 0,3 1,7 84,8 3,8 104 - 0,0 54 1.025,6
11:34 2,5 0,2 1,6 84,8 4,1 104 - 0,0 52 1.025,6
11:33 2,6 0,3 1,7 84,8 4,9 104 - 0,0 49 1.025,6
11:32 2,6 0,3 1,7 84,8 5,8 100 9,8 0,0 50 1.025,6
11:31 2,6 0,3 1,7 84,8 6,0 95 - 0,0 53 1.025,6
11:30 2,5 0,2 1,6 84,8 5,0 91 - 0,0 54 1.025,6
11:29 2,5 0,2 1,6 84,8 4,1 90 - 0,0 51 1.025,7
11:28 2,5 0,2 1,6 84,8 4,0 88 - 0,0 47 1.025,6
11:27 2,5 0,2 1,6 84,8 4,1 85 - 0,0 42 1.025,7
11:26 2,5 0,2 1,6 84,8 4,6 83 - 0,0 41 1.025,7
11:25 2,5 0,3 1,6 85,4 5,0 83 - 0,0 42 1.025,7
11:24 2,5 0,4 1,7 85,9 5,2 83 - 0,0 44 1.025,7
11:23 2,6 0,5 1,7 85,9 4,7 82 - 0,0 42 1.025,7
11:22 2,6 0,5 1,7 85,9 3,7 81 - 0,0 41 1.025,7
11:21 2,6 0,5 1,7 85,9 3,1 81 - 0,0 43 1.025,7
11:20 2,6 0,4 1,7 85,6 3,9 81 - 0,0 38 1.025,8
11:19 2,6 0,3 1,7 84,8 4,9 79 - 0,0 27 1.025,8
11:18 2,6 0,3 1,7 84,8 5,2 77 - 0,0 26 1.025,8
11:17 2,6 0,3 1,7 84,8 5,1 77 - 0,0 27 1.025,8
11:16 2,6 0,3 1,7 84,8 4,7 78 - 0,0 29 1.025,8
11:15 2,6 0,3 1,7 84,8 4,1 81 - 0,0 29 1.025,8
11:14 2,6 0,3 1,7 84,8 4,1 86 - 0,0 29 1.025,8
11:13 2,6 0,3 1,7 84,8 5,3 89 - 0,0 28 1.025,8
11:12 2,6 0,3 1,7 84,8 6,3 90 9,4 0,0 28 1.025,7
11:11 2,6 0,3 1,7 84,8 6,0 90 - 0,0 27 1.025,8
11:10 2,6 0,3 1,7 84,8 5,3 91 - 0,0 31 1.025,8
11:09 2,6 0,3 1,7 84,8 5,0 90 - 0,0 32 1.025,9
11:08 2,6 0,3 1,7 84,8 5,0 88 - 0,0 31 1.025,8
11:07 2,6 0,3 1,7 84,8 6,0 87 9,8 0,0 30 1.025,8
11:06 2,6 0,3 1,7 84,8 7,0 87 - 0,0 26 1.025,8
11:05 2,7 0,4 1,8 84,8 7,0 89 10,7 0,0 26 1.025,8
11:04 2,7 0,4 1,8 84,8 5,8 91 9,4 0,0 26 1.025,9
11:03 2,7 0,4 1,8 84,8 4,6 91 - 0,0 27 1.025,9
11:02 2,7 0,4 1,8 84,8 4,7 92 - 0,0 26 1.025,8
11:01 2,7 0,4 1,8 84,8 5,5 93 - 0,0 25 1.025,8
11:00 2,7 0,4 1,8 84,8 6,1 92 - 0,0 27 1.025,8
 
10:59 2,7 0,4 1,8 84,8 6,5 91 9,8 0,0 24 1.025,8
10:58 2,7 0,4 1,8 84,8 6,2 89 - 0,0 22 1.025,8
10:57 2,7 0,4 1,8 84,8 5,0 89 - 0,0 21 1.025,9
10:56 2,7 0,4 1,8 84,8 4,1 90 - 0,0 24 1.025,9
10:55 2,7 0,4 1,8 84,8 4,2 92 - 0,0 25 1.025,8
10:54 2,6 0,3 1,7 84,8 5,1 91 - 0,0 26 1.025,8
10:53 2,6 0,3 1,7 84,8 5,6 88 - 0,0 26 1.025,8
10:52 2,6 0,3 1,7 84,8 6,5 83 - 0,0 26 1.025,8
10:51 2,6 0,3 1,7 84,8 6,4 78 9,8 0,0 26 1.025,8
10:50 2,6 0,3 1,7 84,8 5,7 74 9,8 0,0 26 1.025,8
10:49 2,6 0,3 1,7 84,8 5,1 71 - 0,0 30 1.025,8
10:48 2,6 0,3 1,7 84,8 5,3 69 - 0,0 31 1.025,8
10:47 2,6 0,3 1,7 84,8 5,6 67 - 0,0 33 1.025,8
10:46 2,6 0,3 1,7 84,8 5,8 69 - 0,0 35 1.025,8
10:45 2,6 0,3 1,7 84,8 6,2 72 10,7 0,0 38 1.025,8
10:44 2,6 0,3 1,7 84,8 6,3 75 10,3 0,0 36 1.025,8
10:43 2,6 0,3 1,7 84,8 6,2 78 11,6 0,0 33 1.025,8
10:42 2,6 0,3 1,7 84,8 5,7 82 11,6 0,0 35 1.025,8
10:41 2,6 0,3 1,7 84,8 4,6 84 - 0,0 35 1.025,8
10:40 2,6 0,3 1,7 84,8 4,7 85 - 0,0 33 1.025,8
10:39 2,6 0,3 1,7 84,8 4,9 83 - 0,0 32 1.025,8
10:38 2,6 0,3 1,7 84,8 5,2 82 - 0,0 32 1.025,8
10:37 2,6 0,3 1,7 84,8 5,2 84 - 0,0 34 1.025,8
10:36 2,6 0,3 1,7 84,8 5,7 87 - 0,0 40 1.025,8
10:35 2,6 0,3 1,7 84,8 4,9 89 9,8 0,0 40 1.025,8
10:34 2,6 0,3 1,7 84,8 4,8 90 - 0,0 51 1.025,8
10:33 2,6 0,3 1,7 84,8 5,5 90 - 0,0 60 1.025,8
10:32 2,6 0,3 1,7 84,8 6,7 90 10,3 0,0 72 1.025,8
10:31 2,6 0,4 1,7 85,6 6,9 89 - 0,0 59 1.025,9
10:30 2,6 0,5 1,7 85,9 6,2 85 9,4 0,0 40 1.025,9
10:29 2,6 0,5 1,7 85,9 5,2 82 - 0,0 40 1.025,9
10:28 2,6 0,5 1,7 85,9 4,2 81 - 0,0 41 1.025,9
10:27 2,6 0,5 1,7 85,9 4,2 80 - 0,0 41 1.025,9
10:26 2,6 0,5 1,7 85,9 3,8 77 - 0,0 40 1.026,0
10:25 2,6 0,5 1,7 85,9 3,3 76 - 0,0 40 1.026,0
10:24 2,6 0,5 1,7 85,9 3,7 78 - 0,0 42 1.026,0
10:23 2,6 0,5 1,7 85,9 4,0 80 - 0,0 43 1.026,0
10:22 2,6 0,5 1,7 85,9 4,1 80 - 0,0 41 1.026,0
10:21 2,5 0,4 1,7 85,9 4,0 78 - 0,0 38 1.026,0
10:20 2,6 0,5 1,7 85,9 4,5 79 - 0,0 37 1.026,0
10:19 2,6 0,5 1,7 85,9 4,8 80 - 0,0 42 1.026,0
10:18 2,6 0,5 1,7 85,9 4,5 81 - 0,0 43 1.026,0
10:17 2,6 0,5 1,7 85,9 4,2 83 - 0,0 40 1.026,0
10:16 2,6 0,5 1,7 85,9 3,6 88 - 0,0 41 1.026,0
10:15 2,6 0,5 1,7 85,9 3,2 92 - 0,0 42 1.026,0
10:14 2,5 0,4 1,7 85,9 3,2 93 - 0,0 40 1.026,0
10:13 2,5 0,4 1,7 85,9 3,5 91 - 0,0 45 1.026,0
10:12 2,5 0,4 1,7 85,9 3,4 87 - 0,0 49 1.025,9
10:11 2,5 0,4 1,7 85,9 3,1 82 - 0,0 48 1.026,0
10:10 2,5 0,4 1,7 85,9 2,7 77 - 0,0 48 1.026,0
10:09 2,5 0,4 1,7 85,9 2,7 73 - 0,0 49 1.026,0
10:08 2,5 0,4 1,7 85,9 3,5 73 - 0,0 53 1.025,9
10:07 2,5 0,4 1,7 85,9 4,0 74 - 0,0 54 1.025,9
10:06 2,5 0,4 1,7 85,9 4,2 77 - 0,0 54 1.025,9
10:05 2,5 0,4 1,7 85,9 4,2 81 - 0,0 54 1.025,9
10:04 2,5 0,4 1,7 85,9 4,3 84 - 0,0 54 1.025,9
10:03 2,5 0,4 1,7 85,9 3,9 86 - 0,0 54 1.025,9
10:02 2,6 0,5 1,7 85,9 3,6 87 - 0,0 53 1.025,9
10:01 2,6 0,5 1,7 85,9 3,0 89 - 0,0 51 1.026,0
10:00 2,6 0,5 1,7 85,9 2,7 93 - 0,0 50 1.025,9
 
09:59 2,5 0,4 1,7 85,9 2,9 97 - 0,0 49 1.025,9
09:58 2,5 0,4 1,7 85,9 3,7 100 - 0,0 49 1.025,9
09:57 2,5 0,4 1,7 85,9 3,7 100 - 0,0 45 1.025,9
09:56 2,5 0,4 1,7 85,9 2,8 96 - 0,0 44 1.025,9
09:55 2,5 0,4 1,7 85,9 2,2 91 - 0,0 44 1.025,9
09:54 2,4 0,3 1,6 85,9 2,9 85 - 0,0 44 1.025,9
09:53 2,4 0,3 1,6 85,9 3,8 81 - 0,0 43 1.025,9
09:52 2,4 0,3 1,6 85,9 4,0 80 - 0,0 42 1.026,0
09:51 2,4 0,3 1,6 85,9 4,1 81 - 0,0 42 1.026,0
09:50 2,4 0,3 1,6 85,9 4,4 83 - 0,0 40 1.025,9
09:49 2,4 0,3 1,6 85,9 4,5 86 - 0,0 40 1.025,9
09:48 2,4 0,3 1,6 85,9 3,7 88 - 0,0 39 1.026,0
09:47 2,4 0,3 1,6 85,9 3,2 86 - 0,0 36 1.026,0
09:46 2,4 0,3 1,6 85,9 3,4 85 - 0,0 35 1.026,0
09:45 2,4 0,3 1,6 85,9 4,0 85 - 0,0 35 1.026,0
09:44 2,4 0,3 1,6 85,9 3,9 86 - 0,0 33 1.026,0
09:43 2,4 0,3 1,6 85,9 3,2 85 - 0,0 32 1.026,0
09:42 2,4 0,3 1,6 85,9 3,1 86 - 0,0 31 1.025,9
09:41 2,4 0,3 1,6 85,9 3,7 88 - 0,0 30 1.025,9
09:40 2,4 0,3 1,6 85,9 4,1 90 - 0,0 29 1.025,9
09:39 2,4 0,3 1,6 85,9 3,6 92 - 0,0 28 1.025,9
09:38 2,4 0,3 1,6 85,9 3,4 92 - 0,0 28 1.025,9
09:37 2,4 0,3 1,6 85,9 3,7 94 - 0,0 26 1.025,9
09:36 2,4 0,3 1,6 85,9 3,5 96 - 0,0 26 1.025,9
09:35 2,4 0,3 1,6 85,9 3,3 96 - 0,0 25 1.025,9
09:34 2,4 0,3 1,6 85,9 3,3 96 - 0,0 25 1.025,8
09:33 2,4 0,3 1,6 85,9 3,4 97 - 0,0 25 1.025,9
09:32 2,4 0,3 1,6 85,9 3,0 98 - 0,0 23 1.025,9
09:31 2,4 0,3 1,6 85,9 2,8 98 - 0,0 21 1.025,9
09:30 2,4 0,3 1,6 85,9 2,7 97 - 0,0 21 1.025,9
09:29 2,4 0,3 1,6 85,9 3,3 97 - 0,0 20 1.025,9
09:28 2,4 0,3 1,6 85,9 4,0 96 - 0,0 19 1.025,9
09:27 2,4 0,3 1,6 85,9 4,1 95 - 0,0 19 1.025,9
09:26 2,4 0,3 1,6 85,9 3,3 93 - 0,0 19 1.025,9
09:25 2,4 0,3 1,6 85,9 2,8 92 - 0,0 20 1.025,9
09:24 2,4 0,3 1,6 85,9 3,0 90 - 0,0 21 1.025,9
09:23 2,4 0,3 1,6 85,9 3,3 89 - 0,0 21 1.025,9
09:21 2,4 0,3 1,6 85,9 3,5 87 - 0,0 21 1.025,9
09:20 2,5 0,4 1,7 85,9 3,3 84 - 0,0 21 1.025,9
09:19 2,5 0,4 1,7 85,9 3,2 80 - 0,0 21 1.025,9
09:18 2,5 0,4 1,7 85,9 2,7 76 - 0,0 21 1.025,9
09:17 2,5 0,4 1,7 85,9 2,8 74 - 0,0 21 1.025,9
09:16 2,5 0,4 1,7 85,9 2,9 71 - 0,0 19 1.025,9
09:15 2,5 0,4 1,7 85,9 2,6 67 - 0,0 19 1.026,0
09:14 2,5 0,4 1,7 85,9 1,9 63 - 0,0 19 1.026,0
09:13 2,5 0,4 1,7 85,9 1,8 64 - 0,0 19 1.026,0
09:12 2,5 0,4 1,7 85,9 2,2 67 - 0,0 18 1.026,0
09:11 2,5 0,4 1,7 85,9 2,2 72 - 0,0 18 1.026,0
09:10 2,5 0,4 1,7 85,9 1,9 75 - 0,0 18 1.026,0
09:09 2,5 0,4 1,7 85,9 2,0 77 - 0,0 18 1.026,0
09:08 2,5 0,4 1,7 85,9 2,0 78 - 0,0 16 1.026,0
09:07 2,4 0,3 1,6 85,9 2,3 77 - 0,0 16 1.026,0
09:06 2,4 0,3 1,6 85,9 2,5 75 - 0,0 15 1.026,0
09:05 2,4 0,3 1,6 85,9 2,4 72 - 0,0 14 1.026,0
09:04 2,4 0,3 1,6 85,9 2,0 73 - 0,0 14 1.026,0
09:03 2,4 0,3 1,6 85,9 1,9 77 - 0,0 14 1.026,0
09:02 2,4 0,3 1,6 85,9 2,5 80 - 0,0 13 1.026,0
09:01 2,4 0,3 1,6 85,9 3,3 80 - 0,0 12 1.026,0
09:00 2,4 0,3 1,6 85,9 3,6 81 - 0,0 12 1.025,9
 
08:59 2,4 0,3 1,6 85,9 3,4 82 - 0,0 12 1.025,9
08:58 2,4 0,3 1,6 85,9 3,0 82 - 0,0 12 1.025,9
08:57 2,4 0,3 1,6 85,9 2,9 80 - 0,0 12 1.025,9
08:56 2,4 0,3 1,6 85,9 3,3 79 - 0,0 10 1.025,9
08:55 2,4 0,3 1,6 85,9 3,1 77 - 0,0 9 1.025,9
08:54 2,4 0,3 1,6 85,9 2,7 74 - 0,0 9 1.025,9
08:53 2,4 0,3 1,6 85,9 2,4 71 - 0,0 9 1.025,9
08:52 2,4 0,3 1,6 85,9 2,5 70 - 0,0 9 1.025,9
08:51 2,4 0,3 1,6 85,9 2,5 72 - 0,0 7 1.025,9
08:50 2,4 0,3 1,6 85,9 2,5 75 - 0,0 7 1.025,8
08:49 2,4 0,3 1,6 85,9 2,4 78 - 0,0 7 1.025,9
08:48 2,4 0,3 1,6 85,9 2,5 82 - 0,0 7 1.025,9
08:47 2,4 0,3 1,6 85,9 2,8 83 - 0,0 5 1.025,8
08:46 2,4 0,3 1,6 85,9 3,0 80 - 0,0 5 1.025,8
08:45 2,4 0,3 1,6 85,9 2,7 77 - 0,0 5 1.025,8
08:44 2,4 0,3 1,6 85,9 2,4 76 - 0,0 5 1.025,9
08:43 2,4 0,3 1,6 85,9 2,6 76 - 0,0 5 1.025,9
08:42 2,4 0,3 1,6 85,9 3,1 75 - 0,0 5 1.025,9
08:41 2,4 0,3 1,6 85,9 3,9 74 - 0,0 1 1.025,8
08:40 2,4 0,3 1,6 85,9 3,9 74 - 0,0 0 1.025,8
08:39 2,4 0,3 1,6 85,9 3,8 71 - 0,0 0 1.025,9
08:38 2,4 0,3 1,6 85,9 3,6 67 - 0,0 0 1.025,9
08:37 2,4 0,3 1,6 85,9 3,7 62 - 0,0 0 1.025,9
08:36 2,5 0,4 1,7 85,9 3,7 60 - 0,0 0 1.025,9
08:35 2,5 0,4 1,7 85,9 3,6 60 - 0,0 0 1.025,9
08:34 2,5 0,4 1,7 85,9 3,2 61 - 0,0 0 1.025,9
08:33 2,5 0,4 1,7 85,9 2,8 65 - 0,0 0 1.025,9
08:32 2,5 0,4 1,7 85,9 2,5 68 - 0,0 0 1.026,0
08:31 2,5 0,4 1,7 85,9 2,8 70 - 0,0 0 1.025,9
08:30 2,5 0,4 1,7 85,9 3,2 68 - 0,0 0 1.025,9
08:29 2,5 0,4 1,7 85,9 3,3 66 - 0,0 0 1.025,9
08:28 2,5 0,4 1,7 85,9 3,3 63 - 0,0 0 1.025,9
08:27 2,5 0,4 1,7 85,9 3,0 62 - 0,0 0 1.026,0
08:26 2,5 0,4 1,7 85,9 2,5 61 - 0,0 0 1.026,0
08:25 2,5 0,4 1,7 85,9 2,2 63 - 0,0 0 1.026,0
08:24 2,5 0,4 1,7 85,9 2,5 67 - 0,0 0 1.026,0
08:23 2,5 0,4 1,7 85,9 3,0 71 - 0,0 0 1.026,0
08:22 2,5 0,4 1,7 85,9 3,3 74 - 0,0 0 1.026,0
08:21 2,5 0,4 1,7 85,9 3,1 78 - 0,0 0 1.026,0
08:20 2,5 0,4 1,7 85,9 3,0 80 - 0,0 0 1.026,0
08:19 2,5 0,4 1,7 85,9 3,3 81 - 0,0 0 1.026,0
08:18 2,5 0,4 1,7 85,9 3,0 79 - 0,0 0 1.026,0
08:17 2,5 0,4 1,7 85,9 2,2 76 - 0,0 0 1.025,9
08:16 2,5 0,4 1,7 85,9 2,1 71 - 0,0 0 1.025,9
08:15 2,5 0,4 1,7 85,9 2,5 67 - 0,0 0 1.025,9
08:14 2,5 0,4 1,7 85,9 2,4 65 - 0,0 0 1.025,9
08:13 2,5 0,4 1,7 85,9 2,1 65 - 0,0 0 1.025,8
08:12 2,5 0,4 1,7 85,9 2,4 67 - 0,0 0 1.025,8
08:11 2,5 0,4 1,7 85,9 2,8 70 - 0,0 0 1.025,8
08:10 2,5 0,4 1,7 85,9 2,7 75 - 0,0 0 1.025,7
08:09 2,5 0,4 1,7 85,9 2,3 79 - 0,0 0 1.025,7
08:08 2,5 0,4 1,7 85,9 2,5 81 - 0,0 0 1.025,7
08:07 2,5 0,4 1,7 85,9 2,9 83 - 0,0 0 1.025,7
08:06 2,5 0,4 1,7 85,9 2,9 84 - 0,0 0 1.025,7
08:05 2,5 0,4 1,7 85,9 2,5 84 - 0,0 0 1.025,7
08:04 2,5 0,4 1,7 85,9 2,4 83 - 0,0 0 1.025,7
08:03 2,5 0,4 1,7 85,9 2,7 81 - 0,0 0 1.025,7
08:02 2,5 0,4 1,7 85,9 3,1 79 - 0,0 0 1.025,7
08:01 2,5 0,4 1,7 85,9 3,0 77 - 0,0 0 1.025,7
08:00 2,5 0,4 1,7 85,9 2,9 75 - 0,0 0 1.025,7
 
07:59 2,5 0,4 1,7 85,9 2,9 73 - 0,0 0 1.025,7
07:58 2,5 0,4 1,7 85,9 2,8 72 - 0,0 0 1.025,7
07:57 2,5 0,4 1,7 85,9 2,6 74 - 0,0 0 1.025,7
07:56 2,5 0,4 1,7 85,9 2,5 76 - 0,0 0 1.025,7
07:55 2,5 0,4 1,7 85,9 3,1 79 - 0,0 0 1.025,7
07:54 2,5 0,4 1,7 85,9 3,8 82 - 0,0 0 1.025,6
07:53 2,5 0,4 1,7 85,9 4,0 85 - 0,0 0 1.025,6
07:52 2,5 0,4 1,7 85,9 4,0 85 - 0,0 0 1.025,6
07:51 2,6 0,5 1,7 85,9 3,7 84 - 0,0 0 1.025,7
07:50 2,6 0,5 1,7 85,9 3,2 84 - 0,0 0 1.025,7
07:49 2,6 0,5 1,7 85,9 2,9 83 - 0,0 0 1.025,7
07:48 2,6 0,5 1,7 85,9 3,0 81 - 0,0 0 1.025,7
07:47 2,6 0,5 1,7 85,9 2,9 81 - 0,0 0 1.025,7
07:46 2,6 0,5 1,7 85,9 3,3 83 - 0,0 0 1.025,7
07:45 2,6 0,5 1,7 85,9 4,1 84 - 0,0 0 1.025,7
07:44 2,6 0,5 1,7 85,9 4,3 83 - 0,0 0 1.025,6
07:43 2,6 0,5 1,7 85,9 3,9 81 - 0,0 0 1.025,6
07:42 2,6 0,5 1,7 85,9 3,9 80 - 0,0 0 1.025,7
07:41 2,6 0,5 1,7 85,9 4,2 78 - 0,0 0 1.025,6
07:40 2,6 0,5 1,7 85,9 4,3 76 - 0,0 0 1.025,6
07:39 2,7 0,6 1,8 85,9 4,5 76 - 0,0 0 1.025,6
07:38 2,7 0,6 1,8 85,9 4,3 76 - 0,0 0 1.025,6
07:37 2,7 0,6 1,8 85,9 3,4 76 - 0,0 0 1.025,6
07:36 2,7 0,6 1,8 85,9 2,6 78 - 0,0 0 1.025,6
07:35 2,7 0,6 1,8 85,9 2,5 80 - 0,0 0 1.025,6
07:34 2,7 0,6 1,8 85,9 2,5 80 - 0,0 0 1.025,6
07:33 2,7 0,6 1,8 85,9 2,5 80 - 0,0 0 1.025,6
07:32 2,7 0,6 1,8 85,9 2,7 80 - 0,0 0 1.025,6
07:31 2,8 0,7 1,9 85,9 2,8 80 - 0,0 0 1.025,6
07:30 2,8 0,7 1,9 85,9 2,9 78 - 0,0 0 1.025,6
07:29 2,8 0,7 1,9 85,9 2,6 75 - 0,0 0 1.025,6
07:28 2,8 0,7 1,9 85,9 2,4 71 - 0,0 0 1.025,6
07:27 2,8 0,5 1,9 84,9 2,0 68 - 0,0 0 1.025,7
07:26 2,8 0,5 1,9 84,8 2,2 67 - 0,0 0 1.025,7
07:25 2,8 0,5 1,9 84,8 2,3 68 - 0,0 0 1.025,7
07:24 2,8 0,5 1,9 84,8 2,5 70 - 0,0 0 1.025,6
07:23 2,8 0,5 1,9 84,8 2,7 71 - 0,0 0 1.025,6
07:22 2,8 0,5 1,9 84,8 2,8 72 - 0,0 0 1.025,6
07:21 2,8 0,5 1,9 84,8 2,5 73 - 0,0 0 1.025,6
07:20 2,8 0,5 1,9 84,8 2,0 73 - 0,0 0 1.025,6
07:19 2,8 0,5 1,9 84,8 1,7 72 - 0,0 0 1.025,6
07:18 2,8 0,5 1,9 84,8 1,9 69 - 0,0 0 1.025,6
07:17 2,9 0,6 2,0 84,8 2,3 69 - 0,0 0 1.025,6
07:16 2,9 0,6 2,0 84,8 2,5 74 - 0,0 0 1.025,6
07:15 2,9 0,6 2,0 84,8 2,1 81 - 0,0 0 1.025,6
07:14 2,9 0,6 2,0 84,8 1,5 84 - 0,0 0 1.025,6
07:13 2,9 0,6 2,0 84,8 1,9 86 - 0,0 0 1.025,6
07:12 2,9 0,6 2,0 84,8 2,2 89 - 0,0 0 1.025,6
07:11 2,9 0,6 2,0 84,8 2,3 90 - 0,0 0 1.025,6
07:10 2,9 0,6 2,0 84,8 2,7 88 - 0,0 0 1.025,6
07:09 2,9 0,6 2,0 84,8 3,0 87 - 0,0 0 1.025,6
07:08 2,9 0,6 2,0 84,8 3,5 87 - 0,0 0 1.025,6
07:07 2,9 0,6 2,0 84,8 3,2 89 - 0,0 0 1.025,6
07:06 2,9 0,6 2,0 84,8 3,1 90 - 0,0 0 1.025,6
07:05 2,9 0,6 2,0 84,8 3,3 90 - 0,0 0 1.025,6
07:04 2,9 0,6 2,0 84,8 3,6 90 - 0,0 0 1.025,6
07:03 2,9 0,6 2,0 84,8 3,8 90 - 0,0 0 1.025,6
07:02 2,9 0,6 2,0 84,8 3,7 90 - 0,0 0 1.025,6
07:01 2,9 0,6 2,0 84,8 3,0 92 - 0,0 0 1.025,6
07:00 2,9 0,6 2,0 84,8 2,5 95 - 0,0 0 1.025,6
 
06:59 2,9 0,6 2,0 84,8 2,8 102 - 0,0 0 1.025,6
06:58 2,9 0,6 2,0 84,8 3,6 109 - 0,0 0 1.025,6
06:57 2,9 0,6 2,0 84,8 3,7 114 - 0,0 0 1.025,6
06:56 2,9 0,6 2,0 84,8 3,6 117 - 0,0 0 1.025,6
06:55 2,9 0,6 2,0 84,8 2,8 118 - 0,0 0 1.025,6
06:54 2,9 0,6 2,0 84,8 2,1 115 - 0,0 0 1.025,6
06:53 2,9 0,6 2,0 84,8 2,2 108 - 0,0 0 1.025,6
06:52 2,9 0,6 2,0 84,8 2,5 97 - 0,0 0 1.025,7
06:51 2,8 0,5 1,9 84,8 2,9 90 - 0,0 0 1.025,6
06:50 2,8 0,5 1,9 84,8 3,6 88 - 0,0 0 1.025,6
06:49 2,8 0,5 1,9 84,8 4,1 87 - 0,0 0 1.025,7
06:48 2,8 0,5 1,9 84,8 4,2 87 - 0,0 0 1.025,6
06:47 2,8 0,5 1,9 84,8 4,7 88 - 0,0 0 1.025,6
06:46 2,8 0,5 1,9 84,8 4,4 90 - 0,0 0 1.025,6
06:45 2,8 0,5 1,9 84,8 3,3 92 - 0,0 0 1.025,6
06:44 2,8 0,5 1,9 84,8 2,8 92 - 0,0 0 1.025,6
06:43 2,8 0,5 1,9 84,8 3,2 91 - 0,0 0 1.025,6
06:42 2,8 0,5 1,9 84,8 3,5 90 - 0,0 0 1.025,6
06:41 2,8 0,5 1,9 84,8 3,6 90 - 0,0 0 1.025,6
06:40 2,9 0,6 2,0 84,8 3,0 92 - 0,0 0 1.025,6
06:39 2,9 0,6 2,0 84,8 2,4 98 - 0,0 0 1.025,6
06:38 2,8 0,5 1,9 84,8 2,2 102 - 0,0 0 1.025,6
06:37 2,8 0,5 1,9 84,8 2,9 105 - 0,0 0 1.025,6
06:36 2,8 0,5 1,9 84,8 2,8 105 - 0,0 0 1.025,6
06:35 2,8 0,5 1,9 84,8 2,7 102 - 0,0 0 1.025,6
06:34 2,8 0,5 1,9 84,8 3,1 94 - 0,0 0 1.025,6
06:33 2,8 0,5 1,9 84,8 3,4 85 - 0,0 0 1.025,6
06:32 2,8 0,5 1,9 84,8 3,5 79 - 0,0 0 1.025,6
06:31 2,8 0,5 1,9 84,8 3,9 79 - 0,0 0 1.025,6
06:30 2,8 0,6 1,9 85,7 3,7 81 - 0,0 0 1.025,6
06:29 2,8 0,7 1,9 85,9 3,1 83 - 0,0 0 1.025,5
06:28 2,8 0,7 1,9 85,9 2,9 84 - 0,0 0 1.025,5
06:27 2,8 0,7 1,9 85,9 3,0 85 - 0,0 0 1.025,5
06:26 2,8 0,7 1,9 85,9 3,0 84 - 0,0 0 1.025,5
06:25 2,8 0,7 1,9 85,9 3,2 81 - 0,0 0 1.025,5
06:24 2,8 0,7 1,9 85,9 3,4 80 - 0,0 0 1.025,5
06:23 2,8 0,7 1,9 85,9 3,6 80 - 0,0 0 1.025,5
06:22 2,8 0,7 1,9 85,9 4,2 80 - 0,0 0 1.025,5
06:21 2,8 0,7 1,9 85,9 4,4 82 - 0,0 0 1.025,6
06:20 2,8 0,7 1,9 85,9 3,8 83 - 0,0 0 1.025,6
06:19 2,8 0,7 1,9 85,9 3,4 84 - 0,0 0 1.025,6
06:18 2,8 0,7 1,9 85,9 3,4 84 - 0,0 0 1.025,6
06:17 2,8 0,7 1,9 85,9 3,2 84 - 0,0 0 1.025,6
06:16 2,9 0,8 2,0 85,9 3,0 86 - 0,0 0 1.025,6
06:15 2,9 0,8 2,0 85,9 3,1 89 - 0,0 0 1.025,6
06:14 2,9 0,8 2,0 85,9 3,2 91 - 0,0 0 1.025,6
06:13 2,9 0,8 2,0 85,9 2,9 92 - 0,0 0 1.025,6
06:12 2,9 0,8 2,0 85,9 2,9 93 - 0,0 0 1.025,6
06:11 2,9 0,8 2,0 85,9 2,9 94 - 0,0 0 1.025,6
06:10 2,9 0,8 2,0 85,9 2,6 94 - 0,0 0 1.025,6
06:08 2,9 0,8 2,0 85,9 2,6 91 - 0,0 0 1.025,7
06:07 2,9 0,8 2,0 85,9 3,0 87 - 0,0 0 1.025,6
06:06 2,9 0,8 2,0 85,9 3,1 81 - 0,0 0 1.025,6
06:05 2,9 0,8 2,0 85,9 3,1 76 - 0,0 0 1.025,7
06:04 3,0 0,9 2,1 85,9 2,9 71 - 0,0 0 1.025,7
06:03 3,0 0,9 2,1 85,9 3,1 68 - 0,0 0 1.025,6
06:02 3,0 0,9 2,1 85,9 3,3 68 - 0,0 0 1.025,6
06:01 3,0 0,9 2,1 85,9 3,1 71 - 0,0 0 1.025,6
06:00 3,0 0,9 2,1 85,9 2,6 75 - 0,0 0 1.025,6
 
05:59 3,0 0,9 2,1 85,9 2,2 79 - 0,0 0 1.025,7
05:58 3,0 0,9 2,1 85,9 1,9 81 - 0,0 0 1.025,7
05:57 3,0 0,9 2,1 85,9 2,0 80 - 0,0 0 1.025,7
05:56 3,1 1,0 2,2 85,9 2,4 78 - 0,0 0 1.025,7
05:55 3,1 1,0 2,2 85,9 2,6 75 - 0,0 0 1.025,7
05:54 3,1 1,0 2,2 85,9 2,5 73 - 0,0 0 1.025,6
05:53 3,1 1,0 2,2 85,9 2,1 71 - 0,0 0 1.025,7
05:52 3,1 1,0 2,2 85,9 2,3 71 - 0,0 0 1.025,7
05:51 3,1 1,1 2,3 86,7 2,8 72 - 0,0 0 1.025,6
05:50 3,1 1,2 2,3 87,1 3,1 73 - 0,0 0 1.025,6
05:49 3,1 1,2 2,3 87,1 2,6 74 - 0,0 0 1.025,6
05:48 3,2 1,3 2,4 87,1 1,8 77 - 0,0 0 1.025,6
05:47 3,1 1,2 2,3 87,1 1,5 78 - 0,0 0 1.025,7
05:46 3,1 1,1 2,3 86,8 1,9 79 - 0,0 0 1.025,7
05:45 3,1 1,0 2,2 85,9 2,1 78 - 0,0 0 1.025,7
05:44 3,1 1,0 2,2 85,9 2,0 77 - 0,0 0 1.025,7
05:43 3,1 1,0 2,2 85,9 2,4 75 - 0,0 0 1.025,7
05:42 3,1 1,0 2,2 85,9 3,2 74 - 0,0 0 1.025,7
05:41 3,1 1,0 2,2 85,9 3,4 75 - 0,0 0 1.025,7
05:40 3,2 1,1 2,3 85,9 3,2 76 - 0,0 0 1.025,7
05:39 3,2 1,2 2,4 86,7 3,0 77 - 0,0 0 1.025,7
05:38 3,2 1,1 2,4 86,3 2,7 76 - 0,0 0 1.025,7
05:37 3,2 1,1 2,3 85,9 2,3 76 - 0,0 0 1.025,8
05:36 3,2 1,1 2,4 86,1 2,4 76 - 0,0 0 1.025,8
05:35 3,2 1,2 2,4 86,9 2,7 76 - 0,0 0 1.025,8
05:34 3,2 1,1 2,3 85,9 2,7 76 - 0,0 0 1.025,8
05:33 3,2 1,1 2,3 85,9 2,6 76 - 0,0 0 1.025,8
05:32 3,2 1,1 2,3 85,9 3,1 77 - 0,0 0 1.025,9
05:31 3,2 1,2 2,4 87,0 3,2 80 - 0,0 0 1.025,9
05:30 3,2 1,3 2,4 87,1 3,2 83 - 0,0 0 1.025,9
05:29 3,2 1,3 2,4 87,1 3,0 85 - 0,0 0 1.025,9
05:28 3,2 1,3 2,4 87,1 3,1 86 - 0,0 0 1.025,9
05:27 3,2 1,3 2,4 87,1 3,3 86 - 0,0 0 1.025,9
05:26 3,2 1,3 2,4 87,1 3,2 86 - 0,0 0 1.025,9
05:25 3,2 1,3 2,4 87,1 2,4 84 - 0,0 0 1.025,9
05:24 3,2 1,3 2,4 87,1 1,7 82 - 0,0 0 1.025,8
05:23 3,2 1,3 2,4 87,1 1,6 78 - 0,0 0 1.025,8
05:22 3,2 1,2 2,4 86,7 1,8 76 - 0,0 0 1.025,8
05:21 3,2 1,1 2,3 85,9 2,0 75 - 0,0 0 1.025,8
05:20 3,2 1,2 2,4 86,9 2,4 77 - 0,0 0 1.025,8
05:19 3,2 1,3 2,4 87,1 2,7 79 - 0,0 0 1.025,8
05:18 3,2 1,3 2,4 87,1 2,9 83 - 0,0 0 1.025,8
05:17 3,3 1,4 2,5 87,1 2,5 87 - 0,0 0 1.025,8
05:16 3,3 1,4 2,5 87,1 2,4 90 - 0,0 0 1.025,8
05:15 3,3 1,4 2,5 87,1 2,7 92 - 0,0 0 1.025,9
05:14 3,3 1,4 2,5 87,1 2,6 92 - 0,0 0 1.025,9
05:13 3,3 1,4 2,5 87,1 2,1 90 - 0,0 0 1.025,9
05:12 3,3 1,4 2,5 87,1 1,9 86 - 0,0 0 1.025,9
05:11 3,3 1,4 2,5 87,1 1,9 83 - 0,0 0 1.025,9
05:10 3,3 1,4 2,5 87,1 1,9 83 - 0,0 0 1.025,9
05:09 3,2 1,3 2,4 87,1 1,8 83 - 0,0 0 1.025,9
05:08 3,2 1,3 2,4 87,1 2,0 82 - 0,0 0 1.025,9
05:07 3,2 1,3 2,4 87,1 2,5 81 - 0,0 0 1.025,9
05:06 3,2 1,3 2,4 87,1 2,8 79 - 0,0 0 1.025,9
05:05 3,2 1,3 2,4 87,1 2,6 78 - 0,0 0 1.025,9
05:04 3,2 1,3 2,4 87,1 2,8 76 - 0,0 0 1.025,9
05:03 3,2 1,3 2,4 87,1 3,3 76 - 0,0 0 1.025,9
05:02 3,2 1,3 2,4 87,1 3,7 76 - 0,0 0 1.026,0
05:01 3,2 1,3 2,4 87,1 3,7 78 - 0,0 0 1.026,0
05:00 3,2 1,3 2,4 87,1 3,7 79 - 0,0 0 1.026,1
 
04:59 3,2 1,3 2,4 87,1 3,5 80 - 0,0 0 1.026,1
04:58 3,2 1,3 2,4 87,1 3,3 83 - 0,0 0 1.026,1
04:57 3,2 1,3 2,4 87,1 3,5 85 - 0,0 0 1.026,1
04:56 3,2 1,3 2,4 87,1 3,1 85 - 0,0 0 1.026,1
04:55 3,2 1,3 2,4 87,1 2,6 84 - 0,0 0 1.026,1
04:54 3,2 1,3 2,4 87,1 2,3 84 - 0,0 0 1.026,0
04:53 3,2 1,3 2,4 87,1 2,7 83 - 0,0 0 1.026,0
04:52 3,3 1,4 2,5 87,1 2,7 79 - 0,0 0 1.026,1
04:51 3,3 1,4 2,5 87,1 2,5 75 - 0,0 0 1.026,1
04:50 3,2 1,3 2,4 87,1 2,0 72 - 0,0 0 1.026,1
04:49 3,3 1,4 2,5 87,1 2,1 71 - 0,0 0 1.026,1
04:48 3,2 1,3 2,4 87,1 2,4 70 - 0,0 0 1.026,1
04:47 3,2 1,3 2,4 87,1 2,5 71 - 0,0 0 1.026,1
04:46 3,2 1,3 2,4 87,1 2,7 72 - 0,0 0 1.026,1
04:45 3,2 1,3 2,4 87,1 3,3 73 - 0,0 0 1.026,1
04:44 3,2 1,3 2,4 87,1 3,5 74 - 0,0 0 1.026,1
04:43 3,3 1,4 2,5 87,1 3,2 76 - 0,0 0 1.026,1
04:42 3,3 1,4 2,5 87,1 3,1 78 - 0,0 0 1.026,1
04:41 3,3 1,4 2,5 87,1 3,0 81 - 0,0 0 1.026,1
04:40 3,3 1,4 2,5 87,1 2,7 84 - 0,0 0 1.026,1
04:39 3,2 1,3 2,4 87,1 2,5 86 - 0,0 0 1.026,2
04:38 3,2 1,3 2,4 87,1 2,8 87 - 0,0 0 1.026,2
04:37 3,2 1,3 2,4 87,1 3,4 86 - 0,0 0 1.026,1
04:36 3,3 1,4 2,5 87,1 4,1 83 - 0,0 0 1.026,1
04:35 3,3 1,4 2,5 87,1 4,5 80 - 0,0 0 1.026,1
04:34 3,3 1,4 2,5 87,1 4,4 78 - 0,0 0 1.026,1
04:33 3,3 1,4 2,5 87,1 3,7 76 - 0,0 0 1.026,2
04:32 3,3 1,4 2,5 87,1 3,2 74 - 0,0 0 1.026,2
04:31 3,3 1,4 2,5 87,1 3,1 72 - 0,0 0 1.026,1
04:30 3,3 1,4 2,5 87,1 3,0 71 - 0,0 0 1.026,1
04:29 3,3 1,4 2,5 87,1 3,1 70 - 0,0 0 1.026,1
04:28 3,3 1,4 2,5 87,1 2,8 69 - 0,0 0 1.026,1
04:27 3,3 1,4 2,5 87,1 2,6 68 - 0,0 0 1.026,2
04:26 3,3 1,4 2,5 87,1 2,4 67 - 0,0 0 1.026,2
04:25 3,3 1,4 2,5 87,1 2,5 66 - 0,0 0 1.026,2
04:24 3,3 1,4 2,5 87,1 2,6 67 - 0,0 0 1.026,2
04:23 3,3 1,4 2,5 87,1 3,1 69 - 0,0 0 1.026,2
04:22 3,4 1,5 2,6 87,1 3,0 73 - 0,0 0 1.026,2
04:21 3,4 1,5 2,6 87,1 2,9 75 - 0,0 0 1.026,2
04:20 3,3 1,4 2,5 87,1 2,6 76 - 0,0 0 1.026,2
04:19 3,3 1,4 2,5 87,1 2,8 79 - 0,0 0 1.026,2
04:18 3,3 1,4 2,5 87,1 2,7 81 - 0,0 0 1.026,2
04:17 3,3 1,4 2,5 87,1 2,7 83 - 0,0 0 1.026,1
04:16 3,3 1,4 2,5 87,1 2,7 84 - 0,0 0 1.026,1
04:15 3,4 1,5 2,6 87,1 2,7 86 - 0,0 0 1.026,1
04:14 3,4 1,5 2,6 87,1 2,7 88 - 0,0 0 1.026,1
04:13 3,3 1,4 2,5 87,1 3,0 87 - 0,0 0 1.026,1
04:12 3,4 1,5 2,6 87,1 3,3 85 - 0,0 0 1.026,1
04:11 3,4 1,5 2,6 87,1 2,8 83 - 0,0 0 1.026,1
04:10 3,4 1,5 2,6 87,1 2,3 82 - 0,0 0 1.026,1
04:09 3,4 1,5 2,6 87,1 2,4 80 - 0,0 0 1.026,1
04:08 3,4 1,5 2,6 87,1 2,5 78 - 0,0 0 1.026,1
04:07 3,4 1,5 2,6 87,1 2,5 76 - 0,0 0 1.026,1
04:06 3,4 1,5 2,6 87,1 2,3 75 - 0,0 0 1.026,2
04:05 3,5 1,6 2,7 87,1 2,3 72 - 0,0 0 1.026,2
04:04 3,5 1,6 2,7 87,1 2,0 70 - 0,0 0 1.026,2
04:03 3,5 1,6 2,7 87,1 1,9 68 - 0,0 0 1.026,2
04:02 3,5 1,6 2,7 87,1 1,9 67 - 0,0 0 1.026,2
04:01 3,5 1,6 2,7 87,1 1,7 66 - 0,0 0 1.026,3
04:00 3,5 1,6 2,7 87,1 1,8 65 - 0,0 0 1.026,3
 
03:59 3,5 1,6 2,7 87,1 1,9 64 - 0,0 0 1.026,3
03:58 3,5 1,6 2,7 87,1 1,8 62 - 0,0 0 1.026,3
03:57 3,5 1,6 2,7 87,1 1,6 65 - 0,0 0 1.026,3
03:56 3,5 1,6 2,7 87,1 1,9 69 - 0,0 0 1.026,4
03:55 3,5 1,6 2,7 87,1 2,2 71 - 0,0 0 1.026,4
03:54 3,6 1,7 2,8 87,1 2,7 71 - 0,0 0 1.026,4
03:53 3,5 1,6 2,7 87,1 2,7 70 - 0,0 0 1.026,4
03:52 3,5 1,6 2,7 87,1 2,6 69 - 0,0 0 1.026,4
03:51 3,5 1,6 2,7 87,1 2,6 68 - 0,0 0 1.026,4
03:50 3,5 1,6 2,7 87,1 2,7 67 - 0,0 0 1.026,4
03:49 3,5 1,6 2,7 87,1 3,0 66 - 0,0 0 1.026,4
03:48 3,6 1,7 2,8 87,1 3,2 68 - 0,0 0 1.026,4
03:47 3,6 1,7 2,8 87,1 3,0 70 - 0,0 0 1.026,4
03:46 3,6 1,7 2,8 87,1 2,5 73 - 0,0 0 1.026,4
03:45 3,6 1,7 2,8 87,1 2,4 77 - 0,0 0 1.026,3
03:44 3,6 1,7 2,8 87,1 2,4 79 - 0,0 0 1.026,4
03:43 3,6 1,7 2,8 87,1 2,7 80 - 0,0 0 1.026,3
03:42 3,6 1,7 2,8 87,1 3,0 82 - 0,0 0 1.026,3
03:41 3,6 1,7 2,8 87,1 3,2 83 - 0,0 0 1.026,3
03:40 3,6 1,7 2,8 87,1 2,9 83 - 0,0 0 1.026,3
03:39 3,7 1,8 2,9 87,1 2,2 81 - 0,0 0 1.026,3
03:38 3,7 1,8 2,9 87,1 1,5 79 - 0,0 0 1.026,3
03:37 3,7 1,8 2,9 87,1 1,0 78 - 0,0 0 1.026,3
03:36 3,6 1,7 2,8 87,1 1,0 77 - 0,0 0 1.026,3
03:35 3,6 1,7 2,8 87,1 1,5 79 - 0,0 0 1.026,4
03:34 3,6 1,7 2,8 87,1 1,7 82 - 0,0 0 1.026,4
03:33 3,6 1,7 2,8 87,1 1,7 83 - 0,0 0 1.026,4
03:32 3,6 1,7 2,8 87,1 2,0 83 - 0,0 0 1.026,5
03:31 3,7 1,8 2,9 87,1 2,6 83 - 0,0 0 1.026,5
03:30 3,7 1,8 2,9 87,1 3,0 84 - 0,0 0 1.026,5
03:29 3,7 1,8 2,9 87,1 3,2 84 - 0,0 0 1.026,5
03:28 3,7 1,8 2,9 87,1 3,0 82 - 0,0 0 1.026,6
03:27 3,7 1,8 2,9 87,1 2,4 81 - 0,0 0 1.026,6
03:26 3,7 1,8 2,9 87,1 2,5 80 - 0,0 0 1.026,5
03:25 3,7 1,8 2,9 87,1 2,7 75 - 0,0 0 1.026,6
03:24 3,7 1,8 2,9 87,1 2,8 70 - 0,0 0 1.026,6
03:23 3,7 1,8 2,9 87,1 2,5 68 - 0,0 0 1.026,6
03:22 3,7 1,8 2,9 87,1 2,4 67 - 0,0 0 1.026,7
03:21 3,7 1,8 2,9 87,1 2,3 66 - 0,0 0 1.026,7
03:20 3,7 1,8 2,9 87,1 3,1 65 - 0,0 0 1.026,7
03:19 3,7 1,8 2,9 87,1 3,8 65 - 0,0 0 1.026,7
03:18 3,7 1,8 2,9 87,1 4,2 65 - 0,0 0 1.026,7
03:17 3,7 1,8 2,9 87,1 4,2 66 - 0,0 0 1.026,7
03:16 3,8 1,9 3,0 87,1 4,0 67 - 0,0 0 1.026,7
03:15 3,8 1,9 3,0 87,1 3,8 69 - 0,0 0 1.026,7
03:14 3,8 1,9 3,0 87,1 3,9 74 - 0,0 0 1.026,7
03:13 3,8 1,9 3,0 87,1 3,5 79 - 0,0 0 1.026,7
03:12 3,8 1,9 3,0 87,1 2,7 85 - 0,0 0 1.026,7
03:11 3,8 1,9 3,0 87,1 2,6 86 - 0,0 0 1.026,7
03:10 3,8 1,9 3,0 87,1 2,8 82 - 0,0 0 1.026,6
03:09 3,8 1,9 3,0 87,1 2,8 78 - 0,0 0 1.026,7
03:08 3,8 1,9 3,0 87,1 3,0 73 - 0,0 0 1.026,7
03:07 3,8 1,9 3,0 87,1 3,2 66 - 0,0 0 1.026,7
03:06 3,8 1,9 3,0 87,1 3,0 60 - 0,0 0 1.026,7
03:05 3,9 2,0 3,1 87,1 2,8 57 - 0,0 0 1.026,7
03:04 3,9 2,0 3,1 87,1 3,2 57 - 0,0 0 1.026,7
03:03 3,9 2,0 3,1 87,1 3,7 59 - 0,0 0 1.026,7
03:02 3,9 2,0 3,1 87,1 4,1 61 - 0,0 0 1.026,7
03:01 4,0 2,1 3,2 87,1 3,6 61 - 0,0 0 1.026,7
03:00 4,0 2,1 3,2 87,1 3,1 61 - 0,0 0 1.026,7
 
02:59 4,0 2,1 3,2 87,1 2,8 59 - 0,0 0 1.026,7
02:58 4,0 2,1 3,2 87,1 3,3 57 - 0,0 0 1.026,7
02:57 4,0 2,1 3,2 87,1 3,6 54 - 0,0 0 1.026,6
02:56 4,0 2,1 3,2 87,1 3,4 52 - 0,0 0 1.026,6
02:55 4,1 2,2 3,3 87,1 3,0 53 - 0,0 0 1.026,6
02:54 4,1 2,2 3,3 87,1 2,8 55 - 0,0 0 1.026,6
02:53 4,1 2,2 3,3 87,1 3,1 55 - 0,0 0 1.026,6
02:52 4,1 2,2 3,3 87,1 3,4 56 - 0,0 0 1.026,6
02:51 4,1 2,2 3,3 87,1 3,1 58 - 0,0 0 1.026,6
02:50 4,1 2,2 3,3 87,1 3,0 62 - 0,0 0 1.026,6
02:49 4,1 2,2 3,3 87,1 3,3 65 - 0,0 0 1.026,6
02:48 4,1 2,2 3,3 87,1 3,5 67 - 0,0 0 1.026,6
02:47 4,1 2,2 3,3 87,1 3,7 68 - 0,0 0 1.026,6
02:46 4,1 2,2 3,3 87,1 3,7 68 - 0,0 0 1.026,6
02:45 4,1 2,2 3,3 87,1 3,8 67 - 0,0 0 1.026,6
02:44 4,1 2,2 3,3 87,1 3,7 67 - 0,0 0 1.026,6
02:43 4,1 2,2 3,3 87,1 3,8 66 - 0,0 0 1.026,6
02:42 4,2 2,2 3,4 87,1 3,9 68 - 0,0 0 1.026,6
02:41 4,2 2,2 3,4 87,1 4,0 70 - 0,0 0 1.026,7
02:40 4,2 2,2 3,4 87,1 3,7 72 - 0,0 0 1.026,6
02:39 4,2 2,2 3,4 87,1 3,0 75 - 0,0 0 1.026,6
02:38 4,2 2,2 3,4 87,1 2,9 76 - 0,0 0 1.026,6
02:37 4,2 2,2 3,4 87,1 3,2 75 - 0,0 0 1.026,6
02:36 4,2 2,2 3,4 87,1 3,6 73 - 0,0 0 1.026,6
02:35 4,3 2,3 3,5 87,1 3,6 72 - 0,0 0 1.026,6
02:34 4,3 2,3 3,5 87,1 3,7 70 - 0,0 0 1.026,6
02:33 4,3 2,3 3,5 87,1 4,0 68 - 0,0 0 1.026,6
02:32 4,3 2,3 3,5 87,1 3,6 64 - 0,0 0 1.026,6
02:31 4,4 2,4 3,6 87,1 2,6 62 - 0,0 0 1.026,6
02:30 4,4 2,4 3,6 87,1 2,1 62 - 0,0 0 1.026,6
02:29 4,4 2,4 3,6 87,1 2,3 64 - 0,0 0 1.026,6
02:28 4,3 2,3 3,5 87,1 2,4 66 - 0,0 0 1.026,6
02:27 4,3 2,3 3,5 87,1 2,7 66 - 0,0 0 1.026,6
02:26 4,3 2,3 3,5 87,1 3,1 65 - 0,0 0 1.026,6
02:25 4,3 2,3 3,5 87,1 3,2 65 - 0,0 0 1.026,5
02:24 4,4 2,4 3,6 87,1 3,1 65 - 0,0 0 1.026,6
02:23 4,4 2,5 3,6 87,2 3,1 64 - 0,0 0 1.026,6
02:22 4,4 2,6 3,7 88,3 2,8 62 - 0,0 0 1.026,6
02:21 4,4 2,6 3,7 88,3 2,7 61 - 0,0 0 1.026,6
02:20 4,4 2,6 3,7 88,3 3,0 61 - 0,0 0 1.026,6
02:19 4,4 2,6 3,7 88,3 3,2 62 - 0,0 0 1.026,5
02:18 4,4 2,6 3,7 88,3 2,7 63 - 0,0 0 1.026,6
02:17 4,4 2,6 3,7 88,3 2,2 64 - 0,0 0 1.026,6
02:16 4,4 2,6 3,7 88,3 2,6 66 - 0,0 0 1.026,5
02:15 4,4 2,6 3,7 88,3 2,9 69 - 0,0 0 1.026,5
02:14 4,4 2,6 3,7 88,3 2,9 72 - 0,0 0 1.026,5
02:13 4,4 2,6 3,7 88,3 2,5 73 - 0,0 0 1.026,5
02:12 4,4 2,6 3,7 88,3 2,2 72 - 0,0 0 1.026,5
02:11 4,5 2,7 3,8 88,3 2,2 71 - 0,0 0 1.026,5
02:10 4,5 2,7 3,8 88,3 2,3 70 - 0,0 0 1.026,5
02:09 4,4 2,6 3,7 88,3 2,1 70 - 0,0 0 1.026,5
02:08 4,5 2,7 3,8 88,3 2,1 69 - 0,0 0 1.026,5
02:07 4,5 2,7 3,8 88,3 2,2 68 - 0,0 0 1.026,5
02:06 4,5 2,7 3,8 88,3 2,2 70 - 0,0 0 1.026,5
02:05 4,5 2,7 3,8 88,3 2,0 73 - 0,0 0 1.026,5
02:04 4,5 2,7 3,8 88,3 1,7 76 - 0,0 0 1.026,5
02:03 4,5 2,7 3,8 88,3 1,7 76 - 0,0 0 1.026,5
02:02 4,5 2,7 3,8 88,3 1,7 76 - 0,0 0 1.026,5
02:01 4,5 2,7 3,8 88,3 1,6 77 - 0,0 0 1.026,5
02:00 4,5 2,7 3,8 88,3 1,3 76 - 0,0 0 1.026,5
 
01:59 4,5 2,7 3,8 88,3 0,9 75 - 0,0 0 1.026,5
01:58 4,5 2,7 3,8 88,3 1,0 76 - 0,0 0 1.026,5
01:57 4,5 2,7 3,8 88,3 1,4 79 - 0,0 0 1.026,5
01:56 4,5 2,7 3,8 88,3 1,5 81 - 0,0 0 1.026,5
01:55 4,5 2,7 3,8 88,3 1,5 81 - 0,0 0 1.026,6
01:54 4,5 2,7 3,8 88,3 1,7 82 - 0,0 0 1.026,6
01:53 4,5 2,7 3,8 88,3 1,8 83 - 0,0 0 1.026,6
01:52 4,6 2,8 3,9 88,3 1,7 83 - 0,0 0 1.026,6
01:51 4,6 2,8 3,9 88,3 1,5 82 - 0,0 0 1.026,6
01:50 4,6 2,8 3,9 88,3 1,4 82 - 0,0 0 1.026,6
01:49 4,6 2,8 3,9 88,3 1,4 81 - 0,0 0 1.026,6
01:48 4,6 2,8 3,9 88,3 1,6 81 - 0,0 0 1.026,7
01:47 4,6 2,8 3,9 88,3 1,5 79 - 0,0 0 1.026,7
01:46 4,6 2,8 3,9 88,3 1,0 77 - 0,0 0 1.026,7
01:45 4,6 2,8 3,9 88,3 0,9 76 - 0,0 0 1.026,7
01:44 4,6 2,8 3,9 88,3 1,2 75 - 0,0 0 1.026,8
01:43 4,6 2,8 3,9 88,3 1,3 75 - 0,0 0 1.026,7
01:42 4,6 2,8 3,9 88,3 1,1 75 - 0,0 0 1.026,8
01:41 4,6 2,8 3,9 88,3 1,0 75 - 0,0 0 1.026,8
01:40 4,6 2,8 3,9 88,3 1,1 76 - 0,0 0 1.026,7
01:39 4,6 2,8 3,9 88,3 1,2 77 - 0,0 0 1.026,8
01:38 4,6 2,8 3,9 88,3 1,0 79 - 0,0 0 1.026,8
01:37 4,6 2,8 3,9 88,3 0,8 81 - 0,0 0 1.026,8
01:36 4,6 2,8 3,9 88,3 0,7 82 - 0,0 0 1.026,8
01:35 4,6 2,8 3,9 88,3 0,9 82 - 0,0 0 1.026,8
01:33 4,5 2,7 3,8 88,3 1,3 83 - 0,0 0 1.026,9
01:32 4,5 2,7 3,8 88,3 1,7 84 - 0,0 0 1.026,8
01:31 4,6 2,8 3,9 88,3 1,7 85 - 0,0 0 1.026,9
01:30 4,6 2,8 3,9 88,3 1,7 86 - 0,0 0 1.026,9
01:29 4,6 2,8 3,9 88,3 1,3 88 - 0,0 0 1.026,8
01:28 4,6 2,8 3,9 88,3 1,1 90 - 0,0 0 1.026,8
01:27 4,6 2,8 3,9 88,3 1,1 92 - 0,0 0 1.026,8
01:26 4,6 2,8 3,9 88,3 1,4 93 - 0,0 0 1.026,8
01:25 4,6 2,8 3,9 88,3 1,2 94 - 0,0 0 1.026,8
01:24 4,6 2,8 3,9 88,3 0,8 97 - 0,0 0 1.026,8
01:23 4,6 2,8 3,9 88,3 0,5 102 - 0,0 0 1.026,8
01:22 4,6 2,8 3,9 88,3 0,5 106 - 0,0 0 1.026,8
01:21 4,6 2,8 3,9 88,3 0,9 107 - 0,0 0 1.026,9
01:20 4,6 2,8 3,9 88,3 1,3 106 - 0,0 0 1.026,9
01:19 4,6 2,8 3,9 88,3 1,7 104 - 0,0 0 1.026,9
01:18 4,6 2,8 3,9 88,3 1,8 103 - 0,0 0 1.026,9
01:17 4,6 2,8 3,9 88,3 1,8 101 - 0,0 0 1.026,9
01:16 4,6 2,8 3,9 88,3 1,4 100 - 0,0 0 1.026,9
01:15 4,6 2,8 3,9 88,3 0,9 100 - 0,0 0 1.026,9
01:14 4,6 2,8 3,9 88,3 1,1 101 - 0,0 0 1.026,9
01:13 4,6 2,7 3,8 87,4 1,6 101 - 0,0 0 1.026,9
01:12 4,6 2,8 3,9 88,3 1,8 101 - 0,0 0 1.026,9
01:11 4,6 2,8 3,9 88,0 1,5 100 - 0,0 0 1.026,9
01:10 4,6 2,8 3,9 88,0 1,2 101 - 0,0 0 1.027,0
01:09 4,6 2,8 3,9 88,3 1,4 101 - 0,0 0 1.026,9
01:08 4,6 2,7 3,8 87,5 1,4 104 - 0,0 0 1.026,9
01:07 4,6 2,8 3,9 88,2 1,1 109 - 0,0 0 1.027,0
01:06 4,6 2,8 3,9 88,1 1,0 114 - 0,0 0 1.026,9
01:05 4,6 2,6 3,8 87,1 1,4 117 - 0,0 0 1.026,9
01:04 4,6 2,6 3,8 87,1 1,9 117 - 0,0 0 1.027,0
01:03 4,6 2,6 3,8 87,1 2,1 115 - 0,0 0 1.026,9
01:02 4,6 2,6 3,8 87,1 2,2 112 - 0,0 0 1.026,9
01:01 4,6 2,6 3,8 87,1 2,1 107 - 0,0 0 1.027,0
01:00 4,6 2,6 3,8 87,1 1,7 102 - 0,0 0 1.026,9
 
00:59 4,6 2,6 3,8 87,1 1,7 98 - 0,0 0 1.026,9
00:58 4,6 2,6 3,8 87,1 1,9 95 - 0,0 0 1.026,9
00:57 4,6 2,6 3,8 87,1 1,9 93 - 0,0 0 1.026,9
00:56 4,6 2,6 3,8 87,1 1,5 93 - 0,0 0 1.027,0
00:55 4,6 2,6 3,8 87,1 1,5 94 - 0,0 0 1.027,0
00:54 4,6 2,6 3,8 87,1 1,7 95 - 0,0 0 1.027,0
00:52 4,6 2,6 3,8 87,1 2,1 95 - 0,0 0 1.027,0
00:51 4,6 2,6 3,8 87,1 2,1 96 - 0,0 0 1.027,0
00:50 4,6 2,6 3,8 87,1 1,9 98 - 0,0 0 1.027,0
00:49 4,6 2,6 3,8 87,1 1,7 100 - 0,0 0 1.027,1
00:48 4,6 2,6 3,8 87,1 2,0 102 - 0,0 0 1.027,0
00:47 4,6 2,6 3,8 87,1 2,3 105 - 0,0 0 1.027,0
00:46 4,6 2,6 3,8 87,1 2,4 105 - 0,0 0 1.027,0
00:45 4,6 2,6 3,8 87,1 2,7 104 - 0,0 0 1.027,0
00:44 4,6 2,6 3,8 87,1 3,2 101 - 0,0 0 1.027,0
00:43 4,6 2,6 3,8 87,1 3,2 98 - 0,0 0 1.027,0
00:42 4,6 2,6 3,8 87,1 3,1 95 - 0,0 0 1.027,1
00:41 4,6 2,6 3,8 87,1 3,0 93 - 0,0 0 1.027,0
00:40 4,6 2,6 3,8 87,1 2,8 90 - 0,0 0 1.027,0
00:39 4,6 2,6 3,8 87,1 2,8 89 - 0,0 0 1.027,0
00:38 4,6 2,6 3,8 87,1 3,0 89 - 0,0 0 1.027,0
00:37 4,6 2,6 3,8 87,1 3,0 90 - 0,0 0 1.027,0
00:36 4,6 2,6 3,8 87,1 2,6 89 - 0,0 0 1.027,0
00:35 4,6 2,6 3,8 87,1 2,4 89 - 0,0 0 1.027,1
00:34 4,6 2,6 3,8 87,1 2,3 89 - 0,0 0 1.027,0
00:33 4,6 2,6 3,8 87,1 1,9 90 - 0,0 0 1.027,1
00:32 4,6 2,6 3,8 87,1 1,7 91 - 0,0 0 1.027,1
00:31 4,6 2,6 3,8 87,1 2,0 92 - 0,0 0 1.027,1
00:30 4,6 2,6 3,8 87,1 2,4 93 - 0,0 0 1.027,1
00:29 4,6 2,6 3,8 87,1 2,3 94 - 0,0 0 1.027,1
00:28 4,6 2,6 3,8 87,1 2,2 95 - 0,0 0 1.027,1
00:27 4,6 2,6 3,8 87,1 2,4 96 - 0,0 0 1.027,2
00:26 4,6 2,6 3,8 87,1 2,3 97 - 0,0 0 1.027,2
00:25 4,6 2,6 3,8 87,1 1,8 98 - 0,0 0 1.027,1
00:24 4,6 2,6 3,8 87,1 1,7 97 - 0,0 0 1.027,2
00:23 4,6 2,6 3,8 87,1 2,1 96 - 0,0 0 1.027,2
00:22 4,6 2,6 3,8 87,1 2,2 95 - 0,0 0 1.027,2
00:21 4,6 2,6 3,8 87,1 2,4 94 - 0,0 0 1.027,2
00:20 4,6 2,7 3,8 87,5 2,7 93 - 0,0 0 1.027,1
00:19 4,6 2,8 3,9 88,3 2,7 92 - 0,0 0 1.027,2
00:18 4,6 2,8 3,9 88,3 2,2 92 - 0,0 0 1.027,2
00:17 4,6 2,8 3,9 88,3 1,8 93 - 0,0 0 1.027,2
00:16 4,6 2,8 3,9 88,3 1,7 95 - 0,0 0 1.027,2
00:15 4,6 2,8 3,9 88,3 1,7 97 - 0,0 0 1.027,2
00:14 4,6 2,8 3,9 88,3 1,7 98 - 0,0 0 1.027,2
00:13 4,6 2,8 3,9 88,3 2,1 99 - 0,0 0 1.027,2
00:11 4,6 2,8 3,9 88,3 2,3 99 - 0,0 0 1.027,3
00:10 4,6 2,8 3,9 88,3 2,4 98 - 0,0 0 1.027,3
00:09 4,6 2,8 3,9 88,3 2,8 97 - 0,0 0 1.027,2
00:08 4,6 2,8 3,9 88,3 3,0 95 - 0,0 0 1.027,2
00:07 4,6 2,8 3,9 88,3 2,6 94 - 0,0 0 1.027,3
00:06 4,6 2,8 3,9 88,3 2,8 94 - 0,0 0 1.027,2
00:05 4,6 2,8 3,9 88,3 3,0 95 - 0,0 0 1.027,2
00:04 4,6 2,8 3,9 88,3 2,4 97 - 0,0 0 1.027,2
00:03 4,6 2,8 3,9 88,3 1,5 100 - 0,0 0 1.027,2
00:02 4,6 2,8 3,9 88,3 1,4 102 - 0,0 0 1.027,3
00:01 4,6 2,8 3,9 88,3 1,8 101 - 0,0 0 1.027,3
00:00 4,6 2,8 3,9 88,3 1,9 101 - 0,0 0 1.027,3
 
23:59 4,6 2,8 3,9 88,3 2,1 100 - 0,0 0 1.027,2
23:58 4,6 2,8 3,9 88,3 2,3 98 - 0,2 0 1.027,2
23:57 4,6 2,8 3,9 88,3 2,9 97 - 0,2 0 1.027,2
23:56 4,6 2,8 3,9 88,3 3,1 99 - 0,2 0 1.027,2
23:55 4,6 2,8 3,9 88,3 2,7 103 - 0,2 0 1.027,2
23:54 4,6 2,8 3,9 88,3 1,6 108 - 0,2 0 1.027,2
23:53 4,6 2,8 3,9 88,3 0,7 112 - 0,2 0 1.027,2
23:52 4,6 2,8 3,9 88,3 1,1 116 - 0,2 0 1.027,3
23:51 4,6 2,8 3,9 88,3 2,2 117 - 0,2 0 1.027,2
23:50 4,6 2,8 3,9 88,3 2,6 114 - 0,2 0 1.027,2
23:49 4,6 2,8 3,9 88,3 2,2 108 - 0,2 0 1.027,2
23:48 4,6 2,8 3,9 88,3 2,4 106 - 0,2 0 1.027,3
23:47 4,6 2,8 3,9 88,3 3,1 107 - 0,2 0 1.027,3
23:46 4,6 2,8 3,9 88,3 2,9 108 - 0,2 0 1.027,3
23:45 4,6 2,8 3,9 88,3 2,8 108 - 0,2 0 1.027,3
23:44 4,6 2,8 3,9 88,3 2,6 109 - 0,2 0 1.027,3
23:43 4,6 2,8 3,9 88,3 2,8 111 - 0,2 0 1.027,3
23:42 4,6 2,8 3,9 88,3 2,8 112 - 0,2 0 1.027,3
23:41 4,6 2,8 3,9 88,3 2,4 111 - 0,2 0 1.027,3
23:40 4,7 2,9 4,0 88,3 1,9 109 - 0,2 0 1.027,3
23:39 4,7 2,9 4,0 88,3 1,9 107 - 0,2 0 1.027,3
23:38 4,7 2,9 4,0 88,3 2,3 106 - 0,2 0 1.027,3
23:37 4,7 2,9 4,0 88,3 2,4 105 - 0,2 0 1.027,3
23:36 4,7 2,9 4,0 88,3 2,0 104 - 0,2 0 1.027,3
23:35 4,7 2,9 4,0 88,3 2,0 104 - 0,2 0 1.027,3
23:34 4,7 2,9 4,0 88,3 2,8 105 - 0,2 0 1.027,3
23:33 4,7 2,9 4,0 88,3 3,2 106 - 0,2 0 1.027,3
23:32 4,7 2,9 4,0 88,3 2,9 106 - 0,2 0 1.027,3
23:31 4,7 2,9 4,0 88,3 2,8 105 - 0,2 0 1.027,3
23:30 4,7 2,9 4,0 88,3 2,7 105 - 0,2 0 1.027,3
23:29 4,7 2,9 4,0 88,3 2,4 105 - 0,2 0 1.027,3
23:28 4,7 2,9 4,0 88,3 1,9 105 - 0,2 0 1.027,3
23:27 4,7 2,9 4,0 88,3 1,8 104 - 0,2 0 1.027,4
23:26 4,7 2,9 4,0 88,3 2,0 103 - 0,2 0 1.027,3
23:25 4,7 2,9 4,0 88,3 2,2 106 - 0,2 0 1.027,3
23:24 4,7 2,9 4,0 88,3 2,3 107 - 0,2 0 1.027,4
23:23 4,7 2,9 4,0 88,3 2,1 107 - 0,2 0 1.027,4
23:22 4,7 2,9 4,0 88,3 2,3 106 - 0,2 0 1.027,4
23:21 4,7 2,9 4,0 88,3 2,4 106 - 0,2 0 1.027,4
23:20 4,7 2,9 4,0 88,3 2,3 105 - 0,2 0 1.027,4
23:19 4,7 2,9 4,0 88,3 1,9 102 - 0,2 0 1.027,4
23:18 4,7 2,9 4,0 88,3 1,6 98 - 0,2 0 1.027,4
23:17 4,7 2,9 4,0 88,3 2,0 96 - 0,2 0 1.027,4
23:16 4,7 2,9 4,0 88,3 2,5 96 - 0,2 0 1.027,4
23:15 4,7 2,9 4,0 88,3 2,7 97 - 0,2 0 1.027,4
23:14 4,7 2,9 4,0 88,3 2,5 96 - 0,2 0 1.027,4
23:13 4,7 2,9 4,0 88,3 2,5 94 - 0,2 0 1.027,5
23:12 4,7 2,9 4,0 88,3 2,7 93 - 0,2 0 1.027,5
23:11 4,7 2,9 4,0 88,3 2,7 93 - 0,2 0 1.027,5
23:10 4,8 3,0 4,1 88,3 2,7 95 - 0,2 0 1.027,5
23:09 4,8 3,0 4,1 88,3 2,1 96 - 0,2 0 1.027,5
23:08 4,8 3,0 4,1 88,3 1,6 98 - 0,2 0 1.027,5
23:07 4,8 3,0 4,1 88,3 1,4 101 - 0,2 0 1.027,4
23:06 4,8 3,0 4,1 88,3 1,8 102 - 0,2 0 1.027,5
23:05 4,8 3,0 4,1 88,3 2,3 100 - 0,2 0 1.027,5
23:04 4,8 3,0 4,1 88,3 2,4 97 - 0,2 0 1.027,5
23:03 4,8 3,0 4,1 88,3 2,3 95 - 0,2 0 1.027,5
23:02 4,8 3,0 4,1 88,3 2,2 92 - 0,2 0 1.027,5
23:01 4,8 3,0 4,1 88,3 2,2 90 - 0,2 0 1.027,6
23:00 4,8 3,0 4,1 88,3 2,3 91 - 0,2 0 1.027,6
 
22:59 4,8 3,0 4,1 88,3 2,4 92 - 0,2 0 1.027,5
22:58 4,8 3,0 4,1 88,3 1,8 93 - 0,2 0 1.027,5
22:57 4,8 3,0 4,1 88,3 1,6 96 - 0,2 0 1.027,6
22:56 4,8 3,0 4,1 88,3 2,2 98 - 0,2 0 1.027,5
22:55 4,8 3,0 4,1 88,3 2,7 97 - 0,2 0 1.027,6
22:54 4,8 3,0 4,1 88,3 2,8 95 - 0,2 0 1.027,5
22:53 4,8 3,0 4,1 88,3 2,3 96 - 0,2 0 1.027,5
22:52 4,8 3,0 4,1 88,3 2,3 97 - 0,2 0 1.027,5
22:51 4,8 3,0 4,1 88,3 2,3 99 - 0,2 0 1.027,6
22:50 4,9 3,1 4,2 88,3 3,0 100 - 0,2 0 1.027,5
22:49 4,9 3,1 4,2 88,3 3,2 101 - 0,2 0 1.027,5
22:48 4,9 3,1 4,2 88,3 3,4 101 - 0,2 0 1.027,5
22:47 4,9 3,1 4,2 88,3 3,1 100 - 0,2 0 1.027,5
22:46 4,9 3,1 4,2 88,3 3,1 99 - 0,2 0 1.027,5
22:45 4,9 3,1 4,2 88,3 2,9 99 - 0,2 0 1.027,5
22:44 4,9 3,1 4,2 88,3 2,8 100 - 0,2 0 1.027,5
22:43 4,9 3,1 4,2 88,3 2,7 103 - 0,2 0 1.027,5
22:42 4,9 3,1 4,2 88,3 2,9 108 - 0,2 0 1.027,5
22:41 4,9 3,1 4,2 88,3 3,0 112 - 0,2 0 1.027,5
22:40 4,9 3,1 4,2 88,3 2,1 112 - 0,2 0 1.027,5
22:39 4,9 3,1 4,2 88,3 1,7 111 - 0,2 0 1.027,6
22:38 4,9 3,1 4,2 88,3 1,9 110 - 0,2 0 1.027,6
22:37 4,9 3,1 4,2 88,3 2,8 109 - 0,2 0 1.027,6
22:36 4,9 3,1 4,2 88,3 2,7 108 - 0,2 0 1.027,6
22:35 4,9 3,1 4,2 88,3 2,4 107 - 0,2 0 1.027,6
22:34 4,9 3,1 4,2 88,3 2,0 106 - 0,2 0 1.027,6
22:33 4,9 3,1 4,2 88,3 1,8 104 - 0,2 0 1.027,6
22:32 4,9 3,1 4,2 88,3 2,3 101 - 0,2 0 1.027,6
22:31 4,9 3,1 4,2 88,3 3,2 98 - 0,2 0 1.027,6
22:30 5,0 3,2 4,3 88,3 3,4 97 - 0,2 0 1.027,6
22:29 5,0 3,2 4,3 88,3 3,0 96 - 0,2 0 1.027,6
22:28 5,0 3,2 4,3 88,3 2,5 99 - 0,2 0 1.027,6
22:27 5,0 3,2 4,3 88,3 2,2 102 - 0,2 0 1.027,6
22:26 5,0 3,2 4,3 88,3 2,2 106 - 0,2 0 1.027,6
22:25 5,0 3,2 4,3 88,3 2,4 108 - 0,2 0 1.027,6
22:24 5,0 3,2 4,3 88,3 2,6 112 - 0,2 0 1.027,6
22:23 5,0 3,2 4,3 88,3 2,5 111 - 0,2 0 1.027,6
22:22 5,0 3,2 4,3 88,3 1,9 108 - 0,2 0 1.027,6
22:21 5,0 3,2 4,3 88,3 1,5 106 - 0,2 0 1.027,6
22:20 5,0 3,2 4,3 88,3 2,1 105 - 0,2 0 1.027,6
22:19 5,0 3,4 4,4 89,2 2,6 104 - 0,2 0 1.027,6
22:18 5,0 3,4 4,4 89,5 2,4 101 - 0,2 0 1.027,6
22:17 5,0 3,4 4,4 89,5 2,5 101 - 0,2 0 1.027,6
22:16 5,0 3,4 4,4 89,5 2,7 107 - 0,2 0 1.027,6
22:15 5,0 3,4 4,4 89,5 2,4 111 - 0,2 0 1.027,6
22:14 5,0 3,3 4,3 88,9 2,2 111 - 0,2 0 1.027,7
22:13 5,0 3,4 4,4 89,2 2,0 111 - 0,2 0 1.027,7
22:12 5,0 3,3 4,3 88,6 2,3 111 - 0,2 0 1.027,7
22:11 5,0 3,2 4,3 88,3 2,7 110 - 0,2 0 1.027,7
22:10 5,0 3,3 4,3 88,7 3,1 107 - 0,2 0 1.027,7
22:09 5,0 3,4 4,4 89,5 3,0 105 - 0,2 0 1.027,7
22:08 5,0 3,4 4,4 89,5 2,3 106 - 0,2 0 1.027,7
22:07 5,0 3,4 4,4 89,5 1,7 106 - 0,2 0 1.027,7
22:06 5,0 3,4 4,4 89,5 1,5 107 - 0,2 0 1.027,7
22:05 5,0 3,4 4,4 89,5 1,7 107 - 0,2 0 1.027,7
22:04 5,0 3,4 4,4 89,5 1,8 107 - 0,2 0 1.027,7
22:03 5,0 3,4 4,4 89,5 2,3 106 - 0,2 0 1.027,7
22:02 5,0 3,4 4,4 89,5 2,6 106 - 0,2 0 1.027,7
22:01 5,0 3,4 4,4 89,5 2,7 107 - 0,2 0 1.027,7
22:00 5,0 3,4 4,4 89,5 2,4 107 - 0,2 0 1.027,7
 
21:59 5,0 3,4 4,4 89,5 2,4 106 - 0,2 0 1.027,7
21:58 5,0 3,4 4,4 89,5 2,7 106 - 0,2 0 1.027,7
21:57 5,0 3,4 4,4 89,5 2,8 107 - 0,2 0 1.027,8
21:56 5,0 3,4 4,4 89,5 2,5 108 - 0,2 0 1.027,8
21:55 5,0 3,4 4,4 89,5 2,3 107 - 0,2 0 1.027,8
21:54 5,0 3,4 4,4 89,5 2,5 105 - 0,2 0 1.027,8
21:53 5,0 3,4 4,4 89,5 2,6 104 - 0,2 0 1.027,8
21:52 5,0 3,4 4,4 89,5 2,5 103 - 0,2 0 1.027,8
21:51 5,0 3,4 4,4 89,5 2,3 101 - 0,2 0 1.027,8
21:50 5,0 3,4 4,4 89,5 2,4 98 - 0,2 0 1.027,8
21:49 5,0 3,4 4,4 89,5 2,4 96 - 0,2 0 1.027,8
21:48 5,0 3,4 4,4 89,5 2,7 97 - 0,2 0 1.027,8
21:47 5,0 3,4 4,4 89,5 3,1 97 - 0,2 0 1.027,8
21:46 5,0 3,4 4,4 89,5 3,3 98 - 0,2 0 1.027,8
21:45 5,0 3,4 4,4 89,5 2,6 99 - 0,2 0 1.027,8
21:44 5,0 3,4 4,4 89,5 2,2 102 - 0,2 0 1.027,8
21:43 5,0 3,4 4,4 89,5 1,8 105 - 0,2 0 1.027,8
21:42 5,0 3,4 4,4 89,5 1,8 109 - 0,2 0 1.027,8
21:41 5,0 3,4 4,4 89,5 1,9 111 - 0,2 0 1.027,8
21:40 5,0 3,4 4,4 89,5 1,7 111 - 0,2 0 1.027,8
21:39 5,0 3,4 4,4 89,5 1,4 110 - 0,2 0 1.027,8
21:38 5,0 3,4 4,4 89,5 1,3 109 - 0,2 0 1.027,8
21:37 5,0 3,4 4,4 89,5 1,2 107 - 0,2 0 1.027,8
21:36 5,0 3,4 4,4 89,5 1,1 102 - 0,2 0 1.027,8
21:35 5,0 3,4 4,4 89,5 1,5 99 - 0,2 0 1.027,8
21:34 5,0 3,4 4,4 89,5 1,7 97 - 0,2 0 1.027,8
21:33 5,0 3,4 4,4 89,5 1,6 97 - 0,2 0 1.027,8
21:32 5,0 3,4 4,4 89,5 1,4 97 - 0,2 0 1.027,8
21:31 5,0 3,4 4,4 89,5 1,8 97 - 0,2 0 1.027,8
21:30 5,0 3,4 4,4 89,5 1,8 98 - 0,2 0 1.027,8
21:29 5,0 3,4 4,4 89,5 2,0 99 - 0,2 0 1.027,8
21:28 5,0 3,4 4,4 89,5 2,0 100 - 0,2 0 1.027,8
21:27 5,0 3,4 4,4 89,5 1,8 100 - 0,2 0 1.027,8
21:26 5,0 3,3 4,3 88,7 1,7 100 - 0,2 0 1.027,8
21:25 5,0 3,2 4,3 88,3 1,9 101 - 0,2 0 1.027,8
21:24 5,0 3,2 4,3 88,3 2,0 101 - 0,2 0 1.027,8
21:23 5,0 3,2 4,3 88,3 1,9 101 - 0,2 0 1.027,8
21:22 5,0 3,2 4,3 88,3 2,0 101 - 0,2 0 1.027,8
21:21 5,0 3,2 4,3 88,3 2,1 100 - 0,2 0 1.027,8
21:20 4,9 3,1 4,2 88,3 2,1 100 - 0,2 0 1.027,8
21:19 5,0 3,2 4,3 88,3 2,0 99 - 0,2 0 1.027,8
21:18 5,0 3,2 4,3 88,3 1,8 97 - 0,2 0 1.027,8
21:17 5,0 3,2 4,3 88,3 1,4 96 - 0,2 0 1.027,8
21:16 4,9 3,1 4,2 88,3 1,2 95 - 0,2 0 1.027,8
21:15 4,9 3,1 4,2 88,3 1,4 95 - 0,2 0 1.027,7
21:14 4,9 3,1 4,2 88,3 1,6 96 - 0,2 0 1.027,7
21:13 4,9 3,1 4,2 88,3 1,4 97 - 0,2 0 1.027,7
21:12 4,9 3,1 4,2 88,3 1,2 99 - 0,2 0 1.027,7
21:11 4,9 3,1 4,2 88,3 1,3 101 - 0,2 0 1.027,7
21:10 5,0 3,2 4,3 88,3 1,5 103 - 0,2 0 1.027,7
21:09 5,0 3,2 4,3 88,3 1,5 104 - 0,2 0 1.027,7
21:08 4,9 3,1 4,2 88,3 1,4 103 - 0,2 0 1.027,7
21:07 4,9 3,1 4,2 88,3 1,2 102 - 0,2 0 1.027,7
21:06 4,9 3,1 4,2 88,3 1,4 100 - 0,2 0 1.027,7
21:05 4,9 3,1 4,2 88,3 1,7 97 - 0,2 0 1.027,7
21:04 4,9 3,1 4,2 88,3 2,0 95 - 0,2 0 1.027,7
21:03 4,9 3,1 4,2 88,3 1,9 94 - 0,2 0 1.027,7
21:02 4,9 3,1 4,2 88,3 1,5 94 - 0,2 0 1.027,7
21:01 4,9 3,1 4,2 88,3 1,2 94 - 0,2 0 1.027,7
21:00 4,9 3,1 4,2 88,3 1,4 95 - 0,2 0 1.027,7
 
20:59 4,9 3,1 4,2 88,3 2,0 97 - 0,2 0 1.027,7
20:58 5,0 3,2 4,3 88,3 2,4 99 - 0,2 0 1.027,7
20:57 4,9 3,1 4,2 88,3 2,4 99 - 0,2 0 1.027,7
20:56 4,9 3,1 4,2 88,3 2,0 99 - 0,2 0 1.027,7
20:55 4,9 3,1 4,2 88,3 1,9 100 - 0,2 0 1.027,7
20:54 5,0 3,2 4,3 88,3 1,9 100 - 0,2 0 1.027,7
20:53 5,0 3,2 4,3 88,3 1,9 98 - 0,2 0 1.027,7
20:52 4,9 3,1 4,2 88,3 1,7 94 - 0,2 0 1.027,7
20:51 4,9 3,1 4,2 88,3 1,8 91 - 0,2 0 1.027,8
20:50 4,9 3,1 4,2 88,3 1,8 88 - 0,2 0 1.027,8
20:49 4,9 3,1 4,2 88,3 1,9 85 - 0,2 0 1.027,7
20:48 4,9 3,1 4,2 88,3 2,0 84 - 0,2 0 1.027,7
20:47 4,9 3,1 4,2 88,3 2,1 84 - 0,2 0 1.027,7
20:46 4,9 3,1 4,2 88,3 2,0 84 - 0,2 0 1.027,7
20:45 4,9 3,1 4,2 88,3 2,0 84 - 0,2 0 1.027,7
20:44 4,9 3,1 4,2 88,3 2,0 84 - 0,2 0 1.027,7
20:43 4,9 3,1 4,2 88,3 2,0 86 - 0,2 0 1.027,7
20:42 4,9 3,1 4,2 88,3 1,9 87 - 0,2 0 1.027,8
20:41 4,9 3,1 4,2 88,3 2,0 87 - 0,2 0 1.027,8
20:40 4,9 3,1 4,2 88,3 1,9 88 - 0,2 0 1.027,7
20:39 4,9 3,1 4,2 88,3 1,8 88 - 0,2 0 1.027,7
20:38 4,9 3,1 4,2 88,3 1,8 88 - 0,2 0 1.027,8
20:37 4,9 3,1 4,2 88,3 1,8 86 - 0,2 0 1.027,8
20:36 4,9 3,1 4,2 88,3 1,7 84 - 0,2 0 1.027,8
20:35 4,9 3,1 4,2 88,3 1,6 84 - 0,2 0 1.027,8
20:34 4,9 3,1 4,2 88,3 1,8 85 - 0,2 0 1.027,8
20:33 4,9 3,1 4,2 88,3 1,8 85 - 0,2 0 1.027,8
20:32 4,8 3,0 4,1 88,3 2,0 86 - 0,2 0 1.027,8
20:31 4,8 3,0 4,1 88,3 2,4 86 - 0,2 0 1.027,8
20:30 4,8 3,0 4,1 88,3 2,5 85 - 0,2 0 1.027,8
20:29 4,8 3,0 4,1 88,3 2,3 85 - 0,2 0 1.027,8
20:28 4,8 3,0 4,1 88,3 2,1 84 - 0,2 0 1.027,8
20:27 4,8 3,0 4,1 88,3 2,1 84 - 0,2 0 1.027,8
20:26 4,8 3,0 4,1 88,3 2,2 85 - 0,2 0 1.027,8
20:25 4,8 3,0 4,1 88,3 2,4 85 - 0,2 0 1.027,8
20:24 4,8 3,0 4,1 88,3 2,2 86 - 0,2 0 1.027,8
20:23 4,7 2,9 4,0 88,3 2,1 87 - 0,2 0 1.027,8
20:22 4,7 2,9 4,0 88,3 2,0 88 - 0,2 0 1.027,8
20:21 4,7 2,9 4,0 88,3 1,7 89 - 0,2 0 1.027,7
20:20 4,7 2,9 4,0 88,3 1,6 90 - 0,2 0 1.027,8
20:19 4,7 2,9 4,0 88,3 1,6 91 - 0,2 0 1.027,8
20:18 4,7 2,9 4,0 88,3 1,7 92 - 0,2 0 1.027,8
20:17 4,7 2,9 4,0 88,3 1,8 92 - 0,2 0 1.027,8
20:16 4,7 2,9 4,0 88,3 1,8 92 - 0,2 0 1.027,8
20:15 4,7 2,9 4,0 88,3 1,5 91 - 0,2 0 1.027,8
20:14 4,7 2,9 4,0 88,3 1,2 91 - 0,2 0 1.027,8
20:13 4,7 2,9 4,0 88,3 1,2 91 - 0,2 0 1.027,8
20:12 4,7 2,9 4,0 88,3 1,2 91 - 0,2 0 1.027,8
20:11 4,7 2,9 4,0 88,3 1,2 91 - 0,2 0 1.027,8
20:10 4,6 2,8 3,9 88,3 1,2 91 - 0,2 0 1.027,8
20:09 4,7 2,9 4,0 88,3 1,2 91 - 0,2 0 1.027,8
20:08 4,6 2,8 3,9 88,3 1,2 91 - 0,2 0 1.027,8
20:07 4,7 2,9 4,0 88,3 1,2 91 - 0,2 0 1.027,8
20:06 4,7 2,9 4,0 88,3 1,1 91 - 0,2 0 1.027,8
20:05 4,7 2,9 4,0 88,3 1,0 91 - 0,2 0 1.027,8
20:04 4,7 2,8 3,9 87,5 0,9 91 - 0,2 0 1.027,8
20:03 4,7 2,7 3,9 87,1 0,9 91 - 0,2 0 1.027,8
20:02 4,7 2,7 3,9 87,1 0,9 91 - 0,2 0 1.027,8
20:01 4,7 2,7 3,9 87,1 1,0 91 - 0,2 0 1.027,8
20:00 4,7 2,7 3,9 87,1 0,9 91 - 0,2 0 1.027,8
 
19:59 4,7 2,7 3,9 87,1 0,8 91 - 0,2 0 1.027,8
19:58 4,7 2,7 3,9 87,1 0,7 91 - 0,2 0 1.027,8
19:57 4,7 2,7 3,9 87,1 0,6 91 - 0,2 0 1.027,8
19:56 4,7 2,7 3,9 87,1 0,6 91 - 0,2 0 1.027,8
19:55 4,7 2,7 3,9 87,1 0,6 91 - 0,2 0 1.027,8
19:54 4,7 2,7 3,9 87,1 0,8 91 - 0,2 0 1.027,8
19:53 4,7 2,7 3,9 87,1 0,9 91 - 0,2 0 1.027,8
19:52 4,7 2,7 3,9 87,1 0,9 91 - 0,2 0 1.027,8
19:51 4,7 2,7 3,9 87,1 0,7 91 - 0,2 0 1.027,9
19:50 4,7 2,7 3,9 87,1 0,8 91 - 0,2 0 1.027,8
19:49 4,7 2,7 3,9 87,1 0,9 91 - 0,2 0 1.027,8
19:48 4,7 2,7 3,9 87,1 1,0 91 - 0,2 0 1.027,8
19:47 4,7 2,7 3,9 87,1 1,1 91 - 0,2 0 1.027,8
19:46 4,7 2,7 3,9 87,1 1,1 90 - 0,2 0 1.027,8
19:45 4,7 2,7 3,9 87,1 1,0 90 - 0,2 0 1.027,7
19:44 4,7 2,7 3,9 87,1 0,9 90 - 0,2 0 1.027,8
19:43 4,7 2,7 3,9 87,1 0,9 90 - 0,2 0 1.027,8
19:42 4,7 2,7 3,9 87,1 0,9 91 - 0,2 0 1.027,8
19:41 4,7 2,7 3,9 87,1 0,9 91 - 0,2 0 1.027,8
19:40 4,7 2,7 3,9 87,1 0,8 91 - 0,2 0 1.027,8
19:39 4,8 2,8 4,0 87,1 0,7 91 - 0,2 0 1.027,8
19:38 4,8 2,8 4,0 87,1 0,8 91 - 0,2 0 1.027,8
19:37 4,8 2,8 4,0 87,1 0,8 91 - 0,2 0 1.027,8
19:36 4,8 2,8 4,0 87,1 0,7 91 - 0,2 0 1.027,8
19:35 4,8 2,8 4,0 87,1 0,5 91 - 0,2 0 1.027,8
19:34 4,8 2,8 4,0 87,1 0,5 91 - 0,2 0 1.027,8
19:33 4,8 2,8 4,0 87,1 0,6 91 - 0,2 0 1.027,8
19:32 4,8 2,8 4,0 87,1 0,7 91 - 0,2 0 1.027,8
19:31 4,8 2,8 4,0 87,1 0,6 91 - 0,2 0 1.027,8
19:30 4,8 2,8 4,0 87,1 0,6 90 - 0,2 0 1.027,8
19:29 4,8 2,8 4,0 87,1 0,7 90 - 0,2 0 1.027,8
19:28 4,8 2,8 4,0 87,1 0,7 90 - 0,2 0 1.027,8
19:27 4,8 2,8 4,0 87,1 0,9 90 - 0,2 0 1.027,8
19:26 4,8 2,8 4,0 87,1 1,0 91 - 0,2 0 1.027,8
19:25 4,8 2,8 4,0 87,1 1,1 91 - 0,2 0 1.027,8
19:24 4,8 2,8 4,0 87,1 1,0 91 - 0,2 0 1.027,8
19:23 4,8 2,8 4,0 87,1 0,9 91 - 0,2 0 1.027,8
19:22 4,8 2,8 4,0 87,1 1,0 91 - 0,2 0 1.027,8
19:21 4,9 2,9 4,1 87,1 1,1 90 - 0,2 0 1.027,8
19:20 4,9 2,9 4,1 87,1 1,1 90 - 0,2 0 1.027,8
19:19 4,9 2,9 4,1 87,1 1,1 91 - 0,2 0 1.027,8
19:18 4,9 2,9 4,1 87,1 1,0 91 - 0,2 0 1.027,8
19:17 4,9 2,9 4,1 87,1 0,9 91 - 0,2 0 1.027,8
19:16 4,9 2,9 4,1 87,1 0,9 91 - 0,2 0 1.027,7
19:15 4,9 2,8 4,1 86,3 1,0 91 - 0,2 0 1.027,8
19:14 4,9 2,9 4,1 87,1 1,1 91 - 0,2 0 1.027,8
19:13 4,9 2,9 4,1 87,1 1,1 91 - 0,2 0 1.027,8
19:12 4,9 2,9 4,1 87,1 1,2 91 - 0,2 0 1.027,8
19:11 4,9 2,9 4,1 87,1 1,2 91 - 0,2 0 1.027,8
19:10 4,9 2,9 4,1 86,9 1,1 91 - 0,2 0 1.027,8
19:09 4,9 2,7 4,0 85,9 1,1 92 - 0,2 0 1.027,8
19:08 4,9 2,7 4,0 85,9 1,1 93 - 0,2 0 1.027,8
19:07 4,9 2,7 4,0 85,9 1,1 94 - 0,2 0 1.027,8
19:06 4,9 2,7 4,0 85,9 1,0 96 - 0,2 0 1.027,7
19:05 5,0 2,8 4,1 85,9 0,8 97 - 0,2 0 1.027,7
19:04 5,0 2,8 4,1 85,9 0,8 98 - 0,2 0 1.027,7
19:03 5,0 2,8 4,1 85,9 0,7 98 - 0,2 0 1.027,7
19:02 5,0 2,8 4,1 85,9 0,7 98 - 0,2 0 1.027,7
19:01 5,0 2,8 4,1 85,9 0,7 98 - 0,2 0 1.027,7
19:00 5,0 2,8 4,1 85,9 0,8 98 - 0,2 0 1.027,7
 
18:59 5,1 2,9 4,2 85,9 0,9 98 - 0,2 0 1.027,8
18:58 5,1 2,9 4,2 85,9 1,0 99 - 0,2 0 1.027,8
18:57 5,1 2,9 4,2 85,9 1,0 99 - 0,2 0 1.027,8
18:56 5,1 2,9 4,2 85,9 0,9 99 - 0,2 0 1.027,7
18:55 5,1 2,9 4,2 85,9 1,0 99 - 0,2 0 1.027,7
18:54 5,2 3,0 4,3 85,9 1,2 99 - 0,2 0 1.027,8
18:53 5,2 3,0 4,3 85,9 1,1 99 - 0,2 0 1.027,8
18:52 5,2 3,0 4,3 85,9 1,3 99 - 0,2 0 1.027,8
18:51 5,2 3,0 4,3 85,9 1,5 86 - 0,2 0 1.027,8
18:50 5,2 3,0 4,3 85,9 1,3 93 - 0,2 0 1.027,7
18:49 5,3 3,1 4,4 85,9 1,0 93 - 0,2 0 1.027,7
18:48 5,3 3,1 4,4 85,9 1,2 93 - 0,2 0 1.027,8
18:47 5,3 3,1 4,4 85,9 1,4 93 - 0,2 0 1.027,8
18:46 5,3 3,1 4,4 85,9 1,0 92 - 0,2 0 1.027,7
18:45 5,3 3,1 4,4 85,9 0,9 90 - 0,2 0 1.027,7
18:44 5,3 3,1 4,4 85,9 1,2 90 - 0,2 0 1.027,7